Time,TemperatureF,DewpointF,PressureIn,WindDirection,WindDirectionDegrees,WindSpeedMPH,WindSpeedGustMPH,Humidity,HourlyPrecipIn,Conditions,Clouds,dailyrainin,SolarRadiationWatts/m^2,SoftwareType,DateUTC
2014-04-24 00:00:00,47.8,42.6,29.80,SE,132,6.0,14.0,82,0.02,,BKN080,0.01,0.00,VWS V14.00,2014-04-24 05:00:00,
2014-04-24 00:03:00,47.6,42.4,29.80,SE,134,7.0,7.0,82,0.02,,BKN080,0.01,0.00,VWS V14.00,2014-04-24 05:03:00,
2014-04-24 00:04:00,47.6,42.4,29.79,SE,134,7.0,8.0,82,0.02,,BKN080,0.01,0.00,VWS V14.00,2014-04-24 05:04:00,
2014-04-24 00:05:00,47.6,42.4,29.79,SE,134,7.0,8.0,82,0.02,,BKN080,0.01,0.00,VWS V14.00,2014-04-24 05:05:00,
2014-04-24 00:09:00,47.4,42.5,29.79,East,101,5.0,8.0,83,0.02,,BKN080,0.01,0.00,VWS V14.00,2014-04-24 05:09:00,
2014-04-24 00:10:00,47.4,42.5,29.79,ESE,111,6.0,9.0,83,0.02,,BKN080,0.01,0.00,VWS V14.00,2014-04-24 05:10:00,
2014-04-24 00:11:00,47.3,42.4,29.79,SE,132,7.0,9.0,83,0.02,,BKN080,0.01,0.00,VWS V14.00,2014-04-24 05:11:00,
2014-04-24 00:14:00,47.3,42.7,29.79,ESE,102,7.0,8.0,84,0.03,,BKN080,0.02,0.00,VWS V14.00,2014-04-24 05:14:00,
2014-04-24 00:15:00,47.2,42.3,29.79,SE,128,7.0,11.0,83,0.03,,BKN080,0.02,0.00,VWS V14.00,2014-04-24 05:15:00,
2014-04-24 00:16:00,47.2,42.6,29.79,ESE,121,7.0,11.0,84,0.03,,BKN080,0.02,0.00,VWS V14.00,2014-04-24 05:16:00,
2014-04-24 00:19:00,47.2,42.6,29.79,ESE,121,6.0,8.0,84,0.03,,BKN080,0.02,0.00,VWS V14.00,2014-04-24 05:19:00,
2014-04-24 00:20:00,47.1,42.5,29.79,SE,145,6.0,8.0,84,0.03,,BKN100,0.02,0.00,VWS V14.00,2014-04-24 05:20:00,
2014-04-24 00:21:00,47.1,42.5,29.80,SE,140,5.0,8.0,84,0.03,,BKN100,0.02,0.00,VWS V14.00,2014-04-24 05:21:00,
2014-04-24 00:22:00,47.1,42.5,29.80,SE,137,6.0,9.0,84,0.03,,BKN100,0.02,0.00,VWS V14.00,2014-04-24 05:22:00,
2014-04-24 00:24:00,47.1,42.5,29.80,ESE,119,5.0,9.0,84,0.03,,BKN100,0.02,0.00,VWS V14.00,2014-04-24 05:24:00,
2014-04-24 00:25:00,47.0,42.4,29.80,ESE,123,4.0,9.0,84,0.03,,BKN100,0.02,0.00,VWS V14.00,2014-04-24 05:25:00,
2014-04-24 00:26:00,47.1,42.5,29.80,SE,133,6.0,9.0,84,0.03,,BKN100,0.02,0.00,VWS V14.00,2014-04-24 05:26:00,
2014-04-24 00:27:00,47.0,42.4,29.79,SE,132,8.0,11.0,84,0.04,,BKN100,0.03,0.00,VWS V14.00,2014-04-24 05:27:00,
2014-04-24 00:29:00,47.0,42.7,29.79,SE,130,5.0,8.0,85,0.04,,BKN100,0.03,0.00,VWS V14.00,2014-04-24 05:29:00,
2014-04-24 00:30:00,47.0,42.7,29.79,SSE,151,7.0,9.0,85,0.04,,BKN100,0.03,0.00,VWS V14.00,2014-04-24 05:30:00,
2014-04-24 00:31:00,46.9,42.6,29.79,SE,130,6.0,11.0,85,0.04,,BKN100,0.03,0.00,VWS V14.00,2014-04-24 05:31:00,
2014-04-24 00:33:00,46.9,42.6,29.79,SE,129,7.0,7.0,85,0.04,,BKN100,0.03,0.00,VWS V14.00,2014-04-24 05:33:00,
2014-04-24 00:34:00,46.8,42.5,29.79,ESE,121,7.0,11.0,85,0.04,,BKN100,0.03,0.00,VWS V14.00,2014-04-24 05:34:00,
2014-04-24 00:36:00,46.8,42.8,29.79,ESE,106,6.0,11.0,86,0.04,,BKN100,0.03,0.00,VWS V14.00,2014-04-24 05:36:00,
2014-04-24 00:38:00,46.7,42.7,29.78,ESE,119,5.0,8.0,86,0.04,,BKN100,0.03,0.00,VWS V14.00,2014-04-24 05:38:00,
2014-04-24 00:39:00,46.7,42.7,29.78,SE,134,5.0,11.0,86,0.04,,BKN100,0.03,0.00,VWS V14.00,2014-04-24 05:39:00,
2014-04-24 00:40:00,46.7,42.7,29.78,ESE,120,7.0,11.0,86,0.04,,BKN110,0.03,0.00,VWS V14.00,2014-04-24 05:40:00,
2014-04-24 00:41:00,46.6,42.6,29.78,SE,126,4.0,11.0,86,0.04,,BKN110,0.03,0.00,VWS V14.00,2014-04-24 05:41:00,
2014-04-24 00:42:00,46.6,42.6,29.78,SE,128,6.0,11.0,86,0.04,,BKN110,0.03,0.00,VWS V14.00,2014-04-24 05:42:00,
2014-04-24 00:43:00,46.6,42.6,29.78,ESE,105,5.0,6.0,86,0.05,,BKN110,0.04,0.00,VWS V14.00,2014-04-24 05:43:00,
2014-04-24 00:45:00,46.5,42.8,29.77,SE,125,4.0,7.0,87,0.05,,BKN110,0.04,0.00,VWS V14.00,2014-04-24 05:45:00,
2014-04-24 00:46:00,46.5,42.8,29.77,East,94,7.0,8.0,87,0.05,,BKN110,0.04,0.00,VWS V14.00,2014-04-24 05:46:00,
2014-04-24 00:47:00,46.5,42.8,29.77,SE,142,5.0,8.0,87,0.05,,BKN110,0.04,0.00,VWS V14.00,2014-04-24 05:47:00,
2014-04-24 00:48:00,46.5,42.8,29.77,ESE,108,6.0,11.0,87,0.04,,BKN110,0.04,0.00,VWS V14.00,2014-04-24 05:48:00,
2014-04-24 00:50:00,46.4,42.5,29.77,ESE,113,6.0,11.0,86,0.04,,BKN110,0.04,0.00,VWS V14.00,2014-04-24 05:50:00,
2014-04-24 00:51:00,46.4,42.5,29.77,SE,130,5.0,11.0,86,0.04,,BKN110,0.04,0.00,VWS V14.00,2014-04-24 05:51:00,
2014-04-24 00:52:00,46.5,42.5,29.77,ESE,105,6.0,11.0,86,0.04,,BKN110,0.04,0.00,VWS V14.00,2014-04-24 05:52:00,
2014-04-24 00:54:00,46.5,42.5,29.77,SE,134,9.0,9.0,86,0.04,,BKN110,0.04,0.00,VWS V14.00,2014-04-24 05:54:00,
2014-04-24 00:55:00,46.5,42.5,29.77,SE,137,6.0,9.0,86,0.04,,BKN110,0.04,0.00,VWS V14.00,2014-04-24 05:55:00,
2014-04-24 00:56:00,46.5,42.5,29.77,SE,138,5.0,9.0,86,0.04,,BKN110,0.04,0.00,VWS V14.00,2014-04-24 05:56:00,
2014-04-24 00:57:00,46.5,42.5,29.77,SE,145,5.0,9.0,86,0.04,,BKN110,0.04,0.00,VWS V14.00,2014-04-24 05:57:00,
2014-04-24 00:58:00,46.5,42.5,29.77,ESE,118,7.0,7.0,86,0.04,,BKN110,0.04,0.00,VWS V14.00,2014-04-24 05:58:00,
2014-04-24 00:59:00,46.5,42.5,29.77,SE,130,6.0,8.0,86,0.04,,BKN110,0.04,0.00,VWS V14.00,2014-04-24 05:59:00,
2014-04-24 01:01:00,46.6,42.6,29.77,SSE,161,6.0,13.0,86,0.04,,-RA,0.04,0.00,VWS V14.00,2014-04-24 06:01:00,
2014-04-24 01:03:00,46.6,42.6,29.77,ESE,116,6.0,9.0,86,0.04,,-RA,0.05,0.00,VWS V14.00,2014-04-24 06:03:00,
2014-04-24 01:04:00,46.6,42.3,29.76,SE,143,5.0,9.0,85,0.04,,-RA,0.05,0.00,VWS V14.00,2014-04-24 06:04:00,
2014-04-24 01:06:00,46.7,42.4,29.76,ESE,105,5.0,9.0,85,0.04,,-RA,0.05,0.00,VWS V14.00,2014-04-24 06:06:00,
2014-04-24 01:09:00,46.7,42.4,29.76,SE,140,7.0,8.0,85,0.04,,-RA,0.05,0.00,VWS V14.00,2014-04-24 06:09:00,
2014-04-24 01:11:00,46.7,42.4,29.76,SE,132,11.0,11.0,85,0.04,,-RA,0.05,0.00,VWS V14.00,2014-04-24 06:11:00,
2014-04-24 01:14:00,46.7,42.4,29.76,ESE,113,6.0,12.0,85,0.03,,-RA,0.05,0.00,VWS V14.00,2014-04-24 06:14:00,
2014-04-24 01:15:00,46.7,42.4,29.76,SE,128,11.0,12.0,85,0.03,,-RA,0.05,0.00,VWS V14.00,2014-04-24 06:15:00,
2014-04-24 01:16:00,46.7,42.4,29.76,ENE,78,6.0,13.0,85,0.03,,-RA,0.05,0.00,VWS V14.00,2014-04-24 06:16:00,
2014-04-24 01:17:00,46.7,42.4,29.76,ESE,103,6.0,13.0,85,0.03,,-RA,0.05,0.00,VWS V14.00,2014-04-24 06:17:00,
2014-04-24 01:19:00,46.7,42.4,29.75,SE,127,6.0,11.0,85,0.03,,-RA,0.05,0.00,VWS V14.00,2014-04-24 06:19:00,
2014-04-24 01:20:00,46.7,42.4,29.75,East,98,8.0,11.0,85,0.03,,-RA,0.05,0.00,VWS V14.00,2014-04-24 06:20:00,
2014-04-24 01:21:00,46.7,42.4,29.75,SE,140,10.0,15.0,85,0.03,,-RA,0.05,0.00,VWS V14.00,2014-04-24 06:21:00,
2014-04-24 01:22:00,46.8,42.5,29.75,SE,135,8.0,15.0,85,0.03,,-RA,0.05,0.00,VWS V14.00,2014-04-24 06:22:00,
2014-04-24 01:24:00,46.8,42.5,29.75,SE,132,9.0,13.0,85,0.03,,-RA,0.05,0.00,VWS V14.00,2014-04-24 06:24:00,
2014-04-24 01:25:00,46.8,42.5,29.75,ESE,121,11.0,13.0,85,0.03,,-RA,0.05,0.00,VWS V14.00,2014-04-24 06:25:00,
2014-04-24 01:26:00,46.8,42.5,29.75,SE,126,7.0,13.0,85,0.03,,-RA,0.05,0.00,VWS V14.00,2014-04-24 06:26:00,
2014-04-24 01:27:00,46.8,42.2,29.75,SE,129,5.0,13.0,84,0.03,,-RA,0.05,0.00,VWS V14.00,2014-04-24 06:27:00,
2014-04-24 01:30:00,46.9,42.3,29.75,ESE,115,5.0,13.0,84,0.02,,-RA,0.05,0.00,VWS V14.00,2014-04-24 06:30:00,
2014-04-24 01:31:00,46.9,42.3,29.74,ESE,123,6.0,13.0,84,0.02,,-RA,0.05,0.00,VWS V14.00,2014-04-24 06:31:00,
2014-04-24 01:32:00,46.8,42.5,29.74,SE,136,8.0,13.0,85,0.02,,-RA,0.05,0.00,VWS V14.00,2014-04-24 06:32:00,
2014-04-24 01:33:00,46.8,42.5,29.75,ESE,118,7.0,7.0,85,0.02,,-RA,0.05,0.00,VWS V14.00,2014-04-24 06:33:00,
2014-04-24 01:35:00,46.8,42.5,29.74,ESE,120,9.0,12.0,85,0.02,,-RA,0.05,0.00,VWS V14.00,2014-04-24 06:35:00,
2014-04-24 01:36:00,46.8,42.2,29.74,ESE,117,11.0,12.0,84,0.02,,-RA,0.05,0.00,VWS V14.00,2014-04-24 06:36:00,
2014-04-24 01:37:00,46.8,42.2,29.74,ESE,112,4.0,12.0,84,0.02,,-RA,0.05,0.00,VWS V14.00,2014-04-24 06:37:00,
2014-04-24 01:38:00,46.8,42.2,29.74,SE,144,2.0,6.0,84,0.02,,-RA,0.05,0.00,VWS V14.00,2014-04-24 06:38:00,
2014-04-24 01:40:00,46.8,42.2,29.74,SE,137,8.0,10.0,84,0.02,,BKN075,0.05,0.00,VWS V14.00,2014-04-24 06:40:00,
2014-04-24 01:41:00,46.8,42.2,29.74,SSE,166,6.0,12.0,84,0.02,,BKN075,0.05,0.00,VWS V14.00,2014-04-24 06:41:00,
2014-04-24 01:42:00,46.8,42.2,29.74,SSE,149,9.0,12.0,84,0.02,,BKN075,0.05,0.00,VWS V14.00,2014-04-24 06:42:00,
2014-04-24 01:43:00,46.9,42.3,29.74,SE,124,8.0,8.0,84,0.02,,BKN075,0.05,0.00,VWS V14.00,2014-04-24 06:43:00,
2014-04-24 01:45:00,46.9,42.0,29.74,SE,139,7.0,11.0,83,0.02,,BKN075,0.05,0.00,VWS V14.00,2014-04-24 06:45:00,
2014-04-24 01:46:00,46.9,42.0,29.74,ESE,118,12.0,12.0,83,0.02,,BKN075,0.05,0.00,VWS V14.00,2014-04-24 06:46:00,
2014-04-24 01:47:00,46.9,42.0,29.74,SE,135,6.0,12.0,83,0.02,,BKN075,0.05,0.00,VWS V14.00,2014-04-24 06:47:00,
2014-04-24 01:48:00,47.0,42.1,29.74,SE,143,8.0,15.0,83,0.01,,BKN075,0.05,0.00,VWS V14.00,2014-04-24 06:48:00,
2014-04-24 01:51:00,47.0,42.1,29.74,SE,135,9.0,15.0,83,0.01,,BKN075,0.05,0.00,VWS V14.00,2014-04-24 06:51:00,
2014-04-24 01:52:00,47.0,42.1,29.74,ESE,119,9.0,20.0,83,0.01,,BKN075,0.05,0.00,VWS V14.00,2014-04-24 06:52:00,
2014-04-24 01:53:00,47.0,42.1,29.74,SE,126,6.0,9.0,83,0.01,,BKN075,0.05,0.00,VWS V14.00,2014-04-24 06:53:00,
2014-04-24 01:56:00,47.0,42.1,29.74,SE,125,7.0,13.0,83,0.01,,BKN075,0.05,0.00,VWS V14.00,2014-04-24 06:56:00,
2014-04-24 01:57:00,47.0,42.1,29.73,ESE,117,9.0,13.0,83,0.01,,BKN075,0.05,0.00,VWS V14.00,2014-04-24 06:57:00,
2014-04-24 01:58:00,47.0,42.1,29.73,SE,129,5.0,13.0,83,0.01,,BKN075,0.05,0.00,VWS V14.00,2014-04-24 06:58:00,
2014-04-24 02:01:00,47.0,41.8,29.74,SE,142,6.0,14.0,82,0.01,,OVC095,0.05,0.00,VWS V14.00,2014-04-24 07:01:00,
2014-04-24 02:02:00,47.1,41.9,29.74,ESE,122,9.0,14.0,82,0.01,,OVC095,0.05,0.00,VWS V14.00,2014-04-24 07:02:00,
2014-04-24 02:03:00,47.0,41.8,29.74,SE,136,7.0,14.0,82,0.01,,OVC095,0.05,0.00,VWS V14.00,2014-04-24 07:03:00,
2014-04-24 02:04:00,47.1,41.9,29.74,SE,132,7.0,12.0,82,0.01,,OVC095,0.05,0.00,VWS V14.00,2014-04-24 07:04:00,
2014-04-24 02:06:00,47.1,41.9,29.74,ESE,121,8.0,12.0,82,0.01,,OVC095,0.05,0.00,VWS V14.00,2014-04-24 07:06:00,
2014-04-24 02:08:00,47.2,42.0,29.74,ESE,115,6.0,12.0,82,0.01,,OVC095,0.05,0.00,VWS V14.00,2014-04-24 07:08:00,
2014-04-24 02:09:00,47.2,42.0,29.74,East,92,12.0,12.0,82,0.00,,OVC095,0.05,0.00,VWS V14.00,2014-04-24 07:09:00,
2014-04-24 02:11:00,47.2,41.7,29.74,SE,134,5.0,16.0,81,0.00,,OVC095,0.05,0.00,VWS V14.00,2014-04-24 07:11:00,
2014-04-24 02:13:00,47.2,41.7,29.74,ESE,121,9.0,16.0,81,0.00,,OVC095,0.05,0.00,VWS V14.00,2014-04-24 07:13:00,
2014-04-24 02:14:00,47.3,41.8,29.73,SSE,153,9.0,11.0,81,0.00,,OVC095,0.05,0.00,VWS V14.00,2014-04-24 07:14:00,
2014-04-24 02:17:00,47.3,41.8,29.74,ESE,107,7.0,11.0,81,0.00,,OVC095,0.05,0.00,VWS V14.00,2014-04-24 07:17:00,
2014-04-24 02:18:00,47.3,41.8,29.74,SE,137,7.0,11.0,81,0.00,,OVC095,0.05,0.00,VWS V14.00,2014-04-24 07:18:00,
2014-04-24 02:19:00,47.3,41.8,29.74,SE,127,4.0,8.0,81,0.00,,OVC095,0.05,0.00,VWS V14.00,2014-04-24 07:19:00,
2014-04-24 02:22:00,47.3,41.8,29.74,ESE,116,5.0,14.0,81,0.00,,OVC110,0.05,0.00,VWS V14.00,2014-04-24 07:22:00,
2014-04-24 02:23:00,47.3,42.1,29.74,SE,140,5.0,6.0,82,0.00,,OVC110,0.05,0.00,VWS V14.00,2014-04-24 07:23:00,
2014-04-24 02:24:00,47.3,42.1,29.74,SE,126,5.0,7.0,82,0.00,,OVC110,0.05,0.00,VWS V14.00,2014-04-24 07:24:00,
2014-04-24 02:25:00,47.2,42.0,29.74,SE,135,6.0,7.0,82,0.00,,OVC110,0.05,0.00,VWS V14.00,2014-04-24 07:25:00,
2014-04-24 02:27:00,47.2,41.7,29.73,SE,136,7.0,11.0,81,0.01,,OVC110,0.06,0.00,VWS V14.00,2014-04-24 07:27:00,
2014-04-24 02:28:00,47.2,42.0,29.73,ESE,123,4.0,4.0,82,0.01,,OVC110,0.06,0.00,VWS V14.00,2014-04-24 07:28:00,
2014-04-24 02:29:00,47.2,42.0,29.73,ESE,112,5.0,8.0,82,0.01,,OVC110,0.06,0.00,VWS V14.00,2014-04-24 07:29:00,
2014-04-24 02:30:00,47.2,41.7,29.73,SE,132,7.0,8.0,81,0.01,,OVC110,0.06,0.00,VWS V14.00,2014-04-24 07:30:00,
2014-04-24 02:32:00,47.1,41.9,29.73,East,91,5.0,11.0,82,0.01,,OVC110,0.06,0.00,VWS V14.00,2014-04-24 07:32:00,
2014-04-24 02:33:00,47.1,41.9,29.72,SE,139,9.0,9.0,82,0.01,,OVC110,0.06,0.00,VWS V14.00,2014-04-24 07:33:00,
2014-04-24 02:34:00,47.1,41.9,29.72,ESE,122,4.0,9.0,82,0.01,,OVC110,0.06,0.00,VWS V14.00,2014-04-24 07:34:00,
2014-04-24 02:35:00,47.1,41.9,29.72,SE,132,7.0,9.0,82,0.01,,OVC110,0.06,0.00,VWS V14.00,2014-04-24 07:35:00,
2014-04-24 02:37:00,47.0,41.8,29.72,SE,140,8.0,12.0,82,0.01,,OVC110,0.06,0.00,VWS V14.00,2014-04-24 07:37:00,
2014-04-24 02:38:00,47.0,41.8,29.72,ESE,115,7.0,8.0,82,0.01,,OVC110,0.06,0.00,VWS V14.00,2014-04-24 07:38:00,
2014-04-24 02:39:00,47.0,41.8,29.72,ESE,122,7.0,8.0,82,0.01,,OVC110,0.06,0.00,VWS V14.00,2014-04-24 07:39:00,
2014-04-24 02:40:00,47.0,41.8,29.72,ESE,115,4.0,9.0,82,0.01,,OVC110,0.06,0.00,VWS V14.00,2014-04-24 07:40:00,
2014-04-24 02:41:00,47.0,41.8,29.72,SE,125,8.0,9.0,82,0.01,,OVC110,0.06,0.00,VWS V14.00,2014-04-24 07:41:00,
2014-04-24 02:43:00,47.0,41.8,29.71,SSE,161,6.0,9.0,82,0.01,,OVC110,0.06,0.00,VWS V14.00,2014-04-24 07:43:00,
2014-04-24 02:44:00,47.0,41.8,29.71,East,93,6.0,14.0,82,0.01,,OVC110,0.06,0.00,VWS V14.00,2014-04-24 07:44:00,
2014-04-24 02:45:00,47.0,41.8,29.72,East,100,5.0,14.0,82,0.01,,OVC110,0.06,0.00,VWS V14.00,2014-04-24 07:45:00,
2014-04-24 02:46:00,47.0,41.8,29.71,ESE,102,5.0,14.0,82,0.01,,OVC110,0.06,0.00,VWS V14.00,2014-04-24 07:46:00,
2014-04-24 02:48:00,47.0,41.8,29.71,SE,130,5.0,14.0,82,0.01,,OVC110,0.06,0.00,VWS V14.00,2014-04-24 07:48:00,
2014-04-24 02:49:00,47.0,41.8,29.71,ESE,115,4.0,9.0,82,0.01,,OVC110,0.06,0.00,VWS V14.00,2014-04-24 07:49:00,
2014-04-24 02:50:00,47.0,41.8,29.71,East,97,6.0,12.0,82,0.01,,OVC110,0.06,0.00,VWS V14.00,2014-04-24 07:50:00,
2014-04-24 02:51:00,47.1,41.9,29.71,SE,135,6.0,12.0,82,0.01,,OVC110,0.06,0.00,VWS V14.00,2014-04-24 07:51:00,
2014-04-24 02:53:00,47.0,41.8,29.71,SE,132,7.0,7.0,82,0.01,,OVC110,0.06,0.00,VWS V14.00,2014-04-24 07:53:00,
2014-04-24 02:54:00,47.0,41.8,29.71,ESE,102,6.0,11.0,82,0.01,,OVC110,0.06,0.00,VWS V14.00,2014-04-24 07:54:00,
2014-04-24 02:56:00,47.0,41.8,29.71,SSE,153,6.0,13.0,82,0.01,,OVC110,0.06,0.00,VWS V14.00,2014-04-24 07:56:00,
2014-04-24 02:57:00,46.9,41.7,29.71,ESE,113,7.0,13.0,82,0.02,,OVC110,0.07,0.00,VWS V14.00,2014-04-24 07:57:00,
2014-04-24 02:58:00,46.9,42.0,29.71,SE,137,8.0,8.0,83,0.02,,OVC110,0.07,0.00,VWS V14.00,2014-04-24 07:58:00,
2014-04-24 02:59:00,46.9,42.0,29.71,SE,131,5.0,8.0,83,0.02,,OVC110,0.07,0.00,VWS V14.00,2014-04-24 07:59:00,
2014-04-24 03:00:00,46.8,41.9,29.71,ESE,119,9.0,13.0,83,0.02,,BKN075,0.07,0.00,VWS V14.00,2014-04-24 08:00:00,
2014-04-24 03:01:00,46.7,41.8,29.71,SE,136,8.0,14.0,83,0.02,,BKN075,0.07,0.00,VWS V14.00,2014-04-24 08:01:00,
2014-04-24 03:02:00,46.7,42.1,29.71,SE,131,6.0,14.0,84,0.02,,BKN075,0.07,0.00,VWS V14.00,2014-04-24 08:02:00,
2014-04-24 03:03:00,46.7,41.8,29.71,East,96,9.0,9.0,83,0.02,,BKN075,0.07,0.00,VWS V14.00,2014-04-24 08:03:00,
2014-04-24 03:04:00,46.6,42.0,29.71,SSE,158,9.0,13.0,84,0.03,,BKN075,0.08,0.00,VWS V14.00,2014-04-24 08:04:00,
2014-04-24 03:05:00,46.6,42.0,29.71,SE,124,5.0,13.0,84,0.03,,BKN075,0.08,0.00,VWS V14.00,2014-04-24 08:05:00,
2014-04-24 03:06:00,46.5,41.9,29.71,SE,140,2.0,13.0,84,0.03,,BKN075,0.08,0.00,VWS V14.00,2014-04-24 08:06:00,
2014-04-24 03:07:00,46.5,42.2,29.71,ESE,121,6.0,13.0,85,0.04,,BKN075,0.09,0.00,VWS V14.00,2014-04-24 08:07:00,
2014-04-24 03:08:00,46.4,42.1,29.71,East,101,6.0,8.0,85,0.04,,BKN075,0.09,0.00,VWS V14.00,2014-04-24 08:08:00,
2014-04-24 03:10:00,46.4,42.1,29.71,SE,132,4.0,11.0,85,0.04,,BKN075,0.09,0.00,VWS V14.00,2014-04-24 08:10:00,
2014-04-24 03:11:00,46.3,42.0,29.71,SE,134,5.0,13.0,85,0.04,,BKN075,0.09,0.00,VWS V14.00,2014-04-24 08:11:00,
2014-04-24 03:12:00,46.3,42.0,29.71,SE,142,9.0,13.0,85,0.04,,BKN075,0.09,0.00,VWS V14.00,2014-04-24 08:12:00,
2014-04-24 03:13:00,46.3,42.0,29.70,SE,134,11.0,11.0,85,0.04,,BKN075,0.09,0.00,VWS V14.00,2014-04-24 08:13:00,
2014-04-24 03:15:00,46.3,42.0,29.70,ESE,109,7.0,11.0,85,0.04,,BKN075,0.09,0.00,VWS V14.00,2014-04-24 08:15:00,
2014-04-24 03:16:00,46.3,42.0,29.70,ESE,123,6.0,11.0,85,0.04,,BKN075,0.09,0.00,VWS V14.00,2014-04-24 08:16:00,
2014-04-24 03:17:00,46.3,42.0,29.70,East,90,6.0,11.0,85,0.04,,BKN075,0.09,0.00,VWS V14.00,2014-04-24 08:17:00,
2014-04-24 03:19:00,46.3,42.0,29.69,ESE,121,8.0,9.0,85,0.04,,BKN075,0.09,0.00,VWS V14.00,2014-04-24 08:19:00,
2014-04-24 03:20:00,46.3,42.0,29.69,SE,140,6.0,13.0,85,0.04,,-RA,0.09,0.00,VWS V14.00,2014-04-24 08:20:00,
2014-04-24 03:21:00,46.3,42.0,29.69,ESE,107,6.0,13.0,85,0.04,,-RA,0.09,0.00,VWS V14.00,2014-04-24 08:21:00,
2014-04-24 03:22:00,46.2,42.2,29.69,SE,130,7.0,13.0,86,0.04,,-RA,0.09,0.00,VWS V14.00,2014-04-24 08:22:00,
2014-04-24 03:24:00,46.2,42.0,29.69,SE,142,6.0,14.0,85,0.04,,-RA,0.09,0.00,VWS V14.00,2014-04-24 08:24:00,
2014-04-24 03:25:00,46.2,42.2,29.69,SE,138,6.0,14.0,86,0.04,,-RA,0.09,0.00,VWS V14.00,2014-04-24 08:25:00,
2014-04-24 03:26:00,46.1,42.2,29.69,ESE,122,11.0,14.0,86,0.04,,-RA,0.09,0.00,VWS V14.00,2014-04-24 08:26:00,
2014-04-24 03:27:00,46.1,42.2,29.69,ESE,116,5.0,14.0,86,0.04,,-RA,0.09,0.00,VWS V14.00,2014-04-24 08:27:00,
2014-04-24 03:29:00,46.1,42.2,29.69,ESE,104,8.0,9.0,86,0.03,,-RA,0.09,0.00,VWS V14.00,2014-04-24 08:29:00,
2014-04-24 03:30:00,46.1,42.2,29.69,SSE,148,6.0,9.0,86,0.03,,-RA,0.09,0.00,VWS V14.00,2014-04-24 08:30:00,
2014-04-24 03:31:00,46.1,42.2,29.69,SE,131,8.0,9.0,86,0.03,,-RA,0.09,0.00,VWS V14.00,2014-04-24 08:31:00,
2014-04-24 03:32:00,46.1,42.2,29.69,ESE,109,7.0,12.0,86,0.03,,-RA,0.09,0.00,VWS V14.00,2014-04-24 08:32:00,
2014-04-24 03:34:00,46.0,42.0,29.68,SE,130,6.0,11.0,86,0.03,,-RA,0.09,0.00,VWS V14.00,2014-04-24 08:34:00,
2014-04-24 03:35:00,46.0,42.0,29.69,SSE,157,6.0,11.0,86,0.03,,-RA,0.09,0.00,VWS V14.00,2014-04-24 08:35:00,
2014-04-24 03:36:00,46.0,42.0,29.68,SE,139,6.0,11.0,86,0.03,,-RA,0.09,0.00,VWS V14.00,2014-04-24 08:36:00,
2014-04-24 03:38:00,46.0,42.0,29.68,SE,139,9.0,11.0,86,0.03,,-RA,0.09,0.00,VWS V14.00,2014-04-24 08:38:00,
2014-04-24 03:40:00,46.1,42.2,29.68,SE,130,7.0,9.0,86,0.03,,-RA,0.09,0.00,VWS V14.00,2014-04-24 08:40:00,
2014-04-24 03:41:00,46.1,41.8,29.68,SE,132,7.0,12.0,85,0.03,,-RA,0.09,0.00,VWS V14.00,2014-04-24 08:41:00,
2014-04-24 03:43:00,46.2,42.0,29.68,ESE,123,7.0,11.0,85,0.03,,-RA,0.09,0.00,VWS V14.00,2014-04-24 08:43:00,
2014-04-24 03:45:00,46.3,42.0,29.68,SE,142,6.0,11.0,85,0.03,,-RA,0.09,0.00,VWS V14.00,2014-04-24 08:45:00,
2014-04-24 03:46:00,46.3,42.0,29.68,SE,134,9.0,11.0,85,0.03,,-RA,0.09,0.00,VWS V14.00,2014-04-24 08:46:00,
2014-04-24 03:48:00,46.4,42.1,29.68,ESE,114,7.0,13.0,85,0.03,,-RA,0.09,0.00,VWS V14.00,2014-04-24 08:48:00,
2014-04-24 03:49:00,46.4,42.1,29.68,SE,129,5.0,13.0,85,0.03,,-RA,0.09,0.00,VWS V14.00,2014-04-24 08:49:00,
2014-04-24 03:50:00,46.4,41.8,29.68,SE,136,8.0,13.0,84,0.03,,-RA,0.09,0.00,VWS V14.00,2014-04-24 08:50:00,
2014-04-24 03:51:00,46.5,41.9,29.68,SE,132,8.0,13.0,84,0.03,,-RA,0.09,0.00,VWS V14.00,2014-04-24 08:51:00,
2014-04-24 03:52:00,46.5,41.9,29.68,SE,133,8.0,13.0,84,0.03,,-RA,0.09,0.00,VWS V14.00,2014-04-24 08:52:00,
2014-04-24 03:54:00,46.7,41.8,29.68,SSE,153,7.0,12.0,83,0.03,,-RA,0.09,0.00,VWS V14.00,2014-04-24 08:54:00,
2014-04-24 03:55:00,46.7,41.8,29.69,SE,138,7.0,12.0,83,0.03,,-RA,0.09,0.00,VWS V14.00,2014-04-24 08:55:00,
2014-04-24 03:56:00,46.7,41.8,29.68,ESE,117,7.0,12.0,83,0.03,,-RA,0.09,0.00,VWS V14.00,2014-04-24 08:56:00,
2014-04-24 03:57:00,46.8,41.9,29.68,SE,134,6.0,12.0,83,0.03,,-RA,0.09,0.00,VWS V14.00,2014-04-24 08:57:00,
2014-04-24 03:58:00,46.8,41.9,29.68,ESE,123,8.0,11.0,83,0.02,,-RA,0.09,0.00,VWS V14.00,2014-04-24 08:58:00,
2014-04-24 04:00:00,46.8,41.9,29.68,SE,137,9.0,11.0,83,0.02,,-RA,0.09,0.00,VWS V14.00,2014-04-24 09:00:00,
2014-04-24 04:02:00,46.9,42.0,29.68,SE,140,5.0,13.0,83,0.02,,BKN075,0.09,0.00,VWS V14.00,2014-04-24 09:02:00,
2014-04-24 04:03:00,46.9,42.0,29.68,SE,130,8.0,11.0,83,0.02,,BKN075,0.09,0.00,VWS V14.00,2014-04-24 09:03:00,
2014-04-24 04:05:00,46.9,41.7,29.68,SE,137,9.0,17.0,82,0.02,,BKN075,0.09,0.00,VWS V14.00,2014-04-24 09:05:00,
2014-04-24 04:06:00,47.0,41.8,29.68,ESE,114,7.0,17.0,82,0.02,,BKN075,0.09,0.00,VWS V14.00,2014-04-24 09:06:00,
2014-04-24 04:07:00,47.0,41.8,29.68,SSE,162,8.0,17.0,82,0.02,,BKN075,0.09,0.00,VWS V14.00,2014-04-24 09:07:00,
2014-04-24 04:08:00,47.0,41.8,29.68,SE,126,8.0,17.0,82,0.02,,BKN075,0.09,0.00,VWS V14.00,2014-04-24 09:08:00,
2014-04-24 04:11:00,47.0,42.1,29.67,ESE,119,8.0,15.0,83,0.01,,BKN075,0.10,0.00,VWS V14.00,2014-04-24 09:11:00,
2014-04-24 04:12:00,47.0,42.1,29.67,SE,140,8.0,15.0,83,0.01,,BKN075,0.10,0.00,VWS V14.00,2014-04-24 09:12:00,
2014-04-24 04:13:00,47.0,42.1,29.67,SSE,148,7.0,13.0,83,0.01,,BKN075,0.10,0.00,VWS V14.00,2014-04-24 09:13:00,
2014-04-24 04:16:00,46.9,42.0,29.67,ESE,119,13.0,16.0,83,0.01,,BKN075,0.10,0.00,VWS V14.00,2014-04-24 09:16:00,
2014-04-24 04:17:00,46.9,42.0,29.67,SSE,159,8.0,16.0,83,0.01,,BKN075,0.10,0.00,VWS V14.00,2014-04-24 09:17:00,
2014-04-24 04:18:00,46.9,42.0,29.67,ESE,120,14.0,16.0,83,0.01,,BKN075,0.10,0.00,VWS V14.00,2014-04-24 09:18:00,
2014-04-24 04:21:00,46.7,42.1,29.67,SE,124,8.0,14.0,84,0.01,,-RA,0.10,0.00,VWS V14.00,2014-04-24 09:21:00,
2014-04-24 04:23:00,46.7,42.1,29.67,East,96,5.0,14.0,84,0.01,,-RA,0.10,0.00,VWS V14.00,2014-04-24 09:23:00,
2014-04-24 04:24:00,46.7,42.1,29.67,SE,132,7.0,10.0,84,0.01,,-RA,0.10,0.00,VWS V14.00,2014-04-24 09:24:00,
2014-04-24 04:26:00,46.6,42.0,29.67,ESE,117,6.0,19.0,84,0.01,,-RA,0.10,0.00,VWS V14.00,2014-04-24 09:26:00,
2014-04-24 04:28:00,46.6,42.0,29.67,ESE,105,7.0,19.0,84,0.01,,-RA,0.10,0.00,VWS V14.00,2014-04-24 09:28:00,
2014-04-24 04:29:00,46.6,42.0,29.67,SE,125,8.0,10.0,84,0.01,,-RA,0.10,0.00,VWS V14.00,2014-04-24 09:29:00,
2014-04-24 04:30:00,46.6,42.0,29.67,ESE,122,6.0,11.0,84,0.01,,-RA,0.10,0.00,VWS V14.00,2014-04-24 09:30:00,
2014-04-24 04:31:00,46.5,42.2,29.67,SE,144,4.0,11.0,85,0.01,,-RA,0.10,0.00,VWS V14.00,2014-04-24 09:31:00,
2014-04-24 04:33:00,46.5,42.2,29.67,SSE,147,9.0,9.0,85,0.01,,-RA,0.10,0.00,VWS V14.00,2014-04-24 09:33:00,
2014-04-24 04:34:00,46.5,42.2,29.67,SSE,155,7.0,15.0,85,0.01,,-RA,0.10,0.00,VWS V14.00,2014-04-24 09:34:00,
2014-04-24 04:35:00,46.5,42.2,29.67,SE,124,9.0,15.0,85,0.01,,-RA,0.10,0.00,VWS V14.00,2014-04-24 09:35:00,
2014-04-24 04:36:00,46.5,42.2,29.67,SE,132,5.0,15.0,85,0.01,,-RA,0.10,0.00,VWS V14.00,2014-04-24 09:36:00,
2014-04-24 05:41:00,47.7,42.8,29.66,SE,146,7.0,12.0,83,0.00,,-RA,0.10,0.00,VWS V14.00,2014-04-24 10:41:00,
2014-04-24 05:46:00,47.9,42.7,29.65,SE,137,9.0,14.0,82,0.00,,-RA,0.10,0.00,VWS V14.00,2014-04-24 10:46:00,
2014-04-24 05:47:00,47.9,42.7,29.65,SE,142,8.0,14.0,82,0.00,,-RA,0.10,0.00,VWS V14.00,2014-04-24 10:47:00,
2014-04-24 05:51:00,47.9,42.7,29.65,SE,142,7.0,9.0,82,0.00,,-RA,0.10,0.00,VWS V14.00,2014-04-24 10:51:00,
2014-04-24 05:52:00,47.9,42.7,29.65,SE,136,7.0,9.0,82,0.00,,-RA,0.10,0.00,VWS V14.00,2014-04-24 10:52:00,
2014-04-24 05:56:00,47.9,43.0,29.64,SE,138,7.0,8.0,83,0.00,,-RA,0.10,0.00,VWS V14.00,2014-04-24 10:56:00,
2014-04-24 05:57:00,47.9,42.7,29.64,SE,143,7.0,8.0,82,0.00,,-RA,0.10,0.00,VWS V14.00,2014-04-24 10:57:00,
2014-04-24 05:58:00,47.8,42.6,29.64,SSE,150,9.0,11.0,82,0.00,,-RA,0.10,0.00,VWS V14.00,2014-04-24 10:58:00,
2014-04-24 06:01:00,47.8,42.6,29.64,SE,132,6.0,12.0,82,0.00,,,0.10,0.00,VWS V14.00,2014-04-24 11:01:00,
2014-04-24 06:02:00,47.9,42.7,29.64,SE,143,8.0,12.0,82,0.00,,,0.10,0.00,VWS V14.00,2014-04-24 11:02:00,
2014-04-24 06:03:00,47.9,42.7,29.64,SSE,157,7.0,20.0,82,0.00,,,0.10,0.00,VWS V14.00,2014-04-24 11:03:00,
2014-04-24 06:07:00,47.9,42.7,29.63,ESE,115,11.0,11.0,82,0.00,,,0.10,0.00,VWS V14.00,2014-04-24 11:07:00,
2014-04-24 06:08:00,47.9,42.7,29.63,SE,146,6.0,13.0,82,0.00,,,0.10,0.00,VWS V14.00,2014-04-24 11:08:00,
2014-04-24 06:12:00,47.8,42.9,29.63,ESE,109,6.0,12.0,83,0.00,,,0.10,0.00,VWS V14.00,2014-04-24 11:12:00,
2014-04-24 06:13:00,47.8,42.6,29.63,SE,144,7.0,12.0,82,0.00,,,0.10,0.00,VWS V14.00,2014-04-24 11:13:00,
2014-04-24 06:14:00,47.8,42.6,29.63,ESE,111,14.0,14.0,82,0.00,,,0.10,0.00,VWS V14.00,2014-04-24 11:14:00,
2014-04-24 06:17:00,47.9,43.0,29.63,SE,124,5.0,14.0,83,0.00,,,0.10,0.00,VWS V14.00,2014-04-24 11:17:00,
2014-04-24 06:18:00,47.9,43.0,29.63,SE,126,9.0,9.0,83,0.00,,,0.10,0.00,VWS V14.00,2014-04-24 11:18:00,
2014-04-24 06:19:00,47.9,43.0,29.63,ESE,120,7.0,14.0,83,0.00,,,0.10,0.00,VWS V14.00,2014-04-24 11:19:00,
2014-04-24 06:20:00,47.9,43.0,29.63,SSE,150,7.0,14.0,83,0.00,,,0.10,0.00,VWS V14.00,2014-04-24 11:20:00,
2014-04-24 06:23:00,47.9,43.0,29.63,South,171,4.0,14.0,83,0.00,,BKN075,0.10,0.00,VWS V14.00,2014-04-24 11:23:00,
2014-04-24 06:24:00,47.9,43.0,29.63,SE,132,5.0,9.0,83,0.00,,BKN075,0.10,0.00,VWS V14.00,2014-04-24 11:24:00,
2014-04-24 06:25:00,47.9,43.0,29.63,SE,144,6.0,9.0,83,0.00,,BKN075,0.10,0.00,VWS V14.00,2014-04-24 11:25:00,
2014-04-24 06:28:00,47.9,42.7,29.62,SE,137,7.0,13.0,82,0.00,,BKN075,0.10,0.00,VWS V14.00,2014-04-24 11:28:00,
2014-04-24 06:29:00,47.9,42.7,29.62,SE,140,9.0,12.0,82,0.00,,BKN075,0.10,0.00,VWS V14.00,2014-04-24 11:29:00,
2014-04-24 06:30:00,48.0,42.8,29.62,SE,135,8.0,12.0,82,0.00,,BKN075,0.10,0.00,VWS V14.00,2014-04-24 11:30:00,
2014-04-24 06:33:00,48.0,43.1,29.62,SE,136,9.0,9.0,83,0.00,,BKN075,0.10,0.00,VWS V14.00,2014-04-24 11:33:00,
2014-04-24 06:34:00,48.0,42.8,29.62,SE,131,9.0,14.0,82,0.00,,BKN075,0.10,0.00,VWS V14.00,2014-04-24 11:34:00,
2014-04-24 06:35:00,48.1,42.9,29.62,SE,128,8.0,14.0,82,0.00,,BKN075,0.10,0.00,VWS V14.00,2014-04-24 11:35:00,
2014-04-24 06:38:00,48.1,43.2,29.62,SE,126,9.0,9.0,83,0.00,,BKN075,0.10,0.00,VWS V14.00,2014-04-24 11:38:00,
2014-04-24 06:39:00,48.1,43.2,29.62,SE,129,8.0,11.0,83,0.00,,BKN075,0.10,0.00,VWS V14.00,2014-04-24 11:39:00,
2014-04-24 06:40:00,48.2,43.0,29.62,South,187,4.0,11.0,82,0.00,,BKN110,0.10,0.00,VWS V14.00,2014-04-24 11:40:00,
2014-04-24 06:41:00,48.2,43.3,29.62,SE,130,7.0,11.0,83,0.00,,BKN110,0.10,0.00,VWS V14.00,2014-04-24 11:41:00,
2014-04-24 06:43:00,48.3,43.4,29.63,SSE,150,8.0,8.0,83,0.00,,BKN110,0.10,5.00,VWS V14.00,2014-04-24 11:43:00,
2014-04-24 06:44:00,48.3,43.4,29.63,SE,136,7.0,8.0,83,0.00,,BKN110,0.10,5.00,VWS V14.00,2014-04-24 11:44:00,
2014-04-24 06:46:00,48.4,43.5,29.63,SSE,153,6.0,8.0,83,0.00,,BKN110,0.10,7.00,VWS V14.00,2014-04-24 11:46:00,
2014-04-24 06:47:00,48.5,43.3,29.63,SE,131,5.0,9.0,82,0.00,,BKN110,0.10,7.00,VWS V14.00,2014-04-24 11:47:00,
2014-04-24 06:48:00,48.5,43.3,29.63,SE,140,5.0,5.0,82,0.00,,BKN110,0.10,9.00,VWS V14.00,2014-04-24 11:48:00,
2014-04-24 06:49:00,48.5,43.3,29.63,SE,128,4.0,6.0,82,0.00,,BKN110,0.10,9.00,VWS V14.00,2014-04-24 11:49:00,
2014-04-24 06:50:00,48.6,43.4,29.63,SSE,148,6.0,9.0,82,0.00,,BKN110,0.10,11.00,VWS V14.00,2014-04-24 11:50:00,
2014-04-24 06:51:00,48.7,43.5,29.63,SE,143,4.0,9.0,82,0.00,,BKN110,0.10,11.00,VWS V14.00,2014-04-24 11:51:00,
2014-04-24 06:53:00,48.8,43.6,29.63,SE,134,7.0,9.0,82,0.00,,BKN110,0.10,12.00,VWS V14.00,2014-04-24 11:53:00,
2014-04-24 06:54:00,48.9,43.7,29.64,SSE,150,5.0,11.0,82,0.00,,BKN110,0.10,12.00,VWS V14.00,2014-04-24 11:54:00,
2014-04-24 06:55:00,49.0,43.4,29.63,SE,130,6.0,11.0,81,0.00,,BKN110,0.10,11.00,VWS V14.00,2014-04-24 11:55:00,
2014-04-24 06:56:00,49.1,43.5,29.63,SSE,157,5.0,11.0,81,0.00,,BKN110,0.10,11.00,VWS V14.00,2014-04-24 11:56:00,
2014-04-24 06:58:00,49.2,43.6,29.63,SE,130,6.0,11.0,81,0.00,,BKN110,0.10,14.00,VWS V14.00,2014-04-24 11:58:00,
2014-04-24 06:59:00,49.3,43.7,29.63,SSE,161,8.0,9.0,81,0.00,,BKN110,0.10,16.00,VWS V14.00,2014-04-24 11:59:00,
2014-04-24 07:00:00,49.3,43.7,29.63,SE,132,9.0,9.0,81,0.00,,BKN110,0.10,19.00,VWS V14.00,2014-04-24 12:00:00,
2014-04-24 07:01:00,49.5,43.6,29.63,SE,141,7.0,10.0,80,0.00,,FEW110,0.10,23.00,VWS V14.00,2014-04-24 12:01:00,
2014-04-24 07:03:00,49.7,43.8,29.63,SSE,157,5.0,7.0,80,0.00,,FEW110,0.10,21.00,VWS V14.00,2014-04-24 12:03:00,
2014-04-24 07:04:00,49.7,43.8,29.63,SE,133,8.0,8.0,80,0.00,,FEW110,0.10,19.00,VWS V14.00,2014-04-24 12:04:00,
2014-04-24 07:05:00,49.7,43.8,29.63,SE,146,7.0,8.0,80,0.00,,FEW110,0.10,19.00,VWS V14.00,2014-04-24 12:05:00,
2014-04-24 07:06:00,49.8,43.9,29.63,SSE,149,7.0,8.0,80,0.00,,FEW110,0.10,19.00,VWS V14.00,2014-04-24 12:06:00,
2014-04-24 07:09:00,50.0,43.8,29.63,South,171,5.0,9.0,79,0.00,,FEW110,0.10,16.00,VWS V14.00,2014-04-24 12:09:00,
2014-04-24 07:10:00,50.0,44.1,29.63,SE,139,8.0,9.0,80,0.00,,FEW110,0.10,16.00,VWS V14.00,2014-04-24 12:10:00,
2014-04-24 07:11:00,50.1,43.8,29.63,SSE,148,6.0,13.0,79,0.00,,FEW110,0.10,16.00,VWS V14.00,2014-04-24 12:11:00,
2014-04-24 07:14:00,50.2,44.0,29.63,SSE,150,10.0,10.0,79,0.00,,FEW110,0.10,16.00,VWS V14.00,2014-04-24 12:14:00,
2014-04-24 07:15:00,50.3,44.0,29.63,SSE,150,7.0,10.0,79,0.00,,FEW110,0.10,16.00,VWS V14.00,2014-04-24 12:15:00,
2014-04-24 07:16:00,50.3,44.0,29.63,SSE,147,8.0,10.0,79,0.00,,FEW110,0.10,14.00,VWS V14.00,2014-04-24 12:16:00,
2014-04-24 07:19:00,50.4,44.1,29.63,South,183,2.0,9.0,79,0.00,,FEW110,0.10,19.00,VWS V14.00,2014-04-24 12:19:00,
2014-04-24 07:20:00,50.4,44.1,29.63,South,176,9.0,9.0,79,0.00,,BKN120,0.10,23.00,VWS V14.00,2014-04-24 12:20:00,
2014-04-24 07:21:00,50.4,44.1,29.63,SW,215,3.0,12.0,79,0.00,,BKN120,0.10,26.00,VWS V14.00,2014-04-24 12:21:00,
2014-04-24 07:22:00,50.5,44.2,29.63,SSE,154,4.0,12.0,79,0.00,,BKN120,0.10,28.00,VWS V14.00,2014-04-24 12:22:00,
2014-04-24 07:24:00,50.5,44.2,29.63,SSE,167,2.0,7.0,79,0.00,,BKN120,0.10,30.00,VWS V14.00,2014-04-24 12:24:00,
2014-04-24 07:25:00,50.5,44.2,29.63,South,184,4.0,7.0,79,0.00,,BKN120,0.10,33.00,VWS V14.00,2014-04-24 12:25:00,
2014-04-24 07:26:00,50.5,44.2,29.63,SSW,197,4.0,7.0,79,0.00,,BKN120,0.10,37.00,VWS V14.00,2014-04-24 12:26:00,
2014-04-24 07:27:00,50.6,44.3,29.63,SSE,156,4.0,7.0,79,0.00,,BKN120,0.10,39.00,VWS V14.00,2014-04-24 12:27:00,
2014-04-24 07:28:00,50.6,44.3,29.63,SSE,159,5.0,7.0,79,0.00,,BKN120,0.10,40.00,VWS V14.00,2014-04-24 12:28:00,
2014-04-24 07:30:00,50.6,44.3,29.63,SSE,148,7.0,11.0,79,0.00,,BKN120,0.10,44.00,VWS V14.00,2014-04-24 12:30:00,
2014-04-24 07:32:00,50.6,44.3,29.63,SSE,153,5.0,11.0,79,0.00,,BKN120,0.10,49.00,VWS V14.00,2014-04-24 12:32:00,
2014-04-24 07:33:00,50.6,44.3,29.63,SE,140,7.0,8.0,79,0.00,,BKN120,0.10,51.00,VWS V14.00,2014-04-24 12:33:00,
2014-04-24 07:36:00,50.8,44.5,29.63,SE,146,5.0,11.0,79,0.00,,BKN120,0.10,60.00,VWS V14.00,2014-04-24 12:36:00,
2014-04-24 07:37:00,50.8,44.5,29.63,SE,140,4.0,11.0,79,0.00,,BKN120,0.10,65.00,VWS V14.00,2014-04-24 12:37:00,
2014-04-24 07:38:00,50.8,44.5,29.63,SE,146,4.0,5.0,79,0.00,,BKN120,0.10,67.00,VWS V14.00,2014-04-24 12:38:00,
2014-04-24 07:41:00,50.8,44.5,29.63,SE,126,6.0,7.0,79,0.00,,OVC110,0.10,72.00,VWS V14.00,2014-04-24 12:41:00,
2014-04-24 07:42:00,50.9,44.6,29.63,SE,143,8.0,8.0,79,0.00,,OVC110,0.10,72.00,VWS V14.00,2014-04-24 12:42:00,
2014-04-24 07:43:00,50.9,44.6,29.64,South,190,4.0,7.0,79,0.00,,OVC110,0.10,72.00,VWS V14.00,2014-04-24 12:43:00,
2014-04-24 07:46:00,50.9,45.0,29.64,South,171,4.0,7.0,80,0.00,,OVC110,0.10,69.00,VWS V14.00,2014-04-24 12:46:00,
2014-04-24 07:48:00,50.9,45.0,29.64,SSE,155,1.0,1.0,80,0.00,,OVC110,0.10,70.00,VWS V14.00,2014-04-24 12:48:00,
2014-04-24 07:49:00,51.0,45.1,29.64,SSE,165,2.0,6.0,80,0.00,,OVC110,0.10,69.00,VWS V14.00,2014-04-24 12:49:00,
2014-04-24 07:51:00,51.0,45.1,29.64,SE,146,4.0,6.0,80,0.00,,OVC110,0.10,62.00,VWS V14.00,2014-04-24 12:51:00,
2014-04-24 07:52:00,51.0,45.1,29.64,SSE,156,6.0,7.0,80,0.00,,OVC110,0.10,54.00,VWS V14.00,2014-04-24 12:52:00,
2014-04-24 07:53:00,51.0,45.1,29.64,SSW,205,4.0,4.0,80,0.00,,OVC110,0.10,54.00,VWS V14.00,2014-04-24 12:53:00,
2014-04-24 07:55:00,51.0,45.1,29.64,SSE,150,7.0,7.0,80,0.00,,OVC110,0.10,54.00,VWS V14.00,2014-04-24 12:55:00,
2014-04-24 07:56:00,51.0,45.1,29.64,SSE,148,4.0,7.0,80,0.00,,OVC110,0.10,60.00,VWS V14.00,2014-04-24 12:56:00,
2014-04-24 07:57:00,51.0,45.4,29.64,SSE,153,5.0,7.0,81,0.00,,OVC110,0.10,69.00,VWS V14.00,2014-04-24 12:57:00,
2014-04-24 07:58:00,51.0,45.1,29.64,SE,140,4.0,5.0,80,0.00,,OVC110,0.10,69.00,VWS V14.00,2014-04-24 12:58:00,
2014-04-24 08:00:00,51.0,45.1,29.64,SSE,148,2.0,5.0,80,0.00,,BKN110,0.10,72.00,VWS V14.00,2014-04-24 13:00:00,
2014-04-24 08:01:00,51.1,45.5,29.65,South,171,0.0,5.0,81,0.00,,BKN110,0.10,76.00,VWS V14.00,2014-04-24 13:01:00,
2014-04-24 08:02:00,51.1,45.5,29.65,South,171,0.0,5.0,81,0.00,,BKN110,0.10,81.00,VWS V14.00,2014-04-24 13:02:00,
2014-04-24 08:03:00,51.1,45.5,29.65,South,171,2.0,2.0,81,0.00,,BKN110,0.10,81.00,VWS V14.00,2014-04-24 13:03:00,
2014-04-24 08:05:00,51.2,45.6,29.65,South,171,2.0,4.0,81,0.00,,BKN110,0.10,90.00,VWS V14.00,2014-04-24 13:05:00,
2014-04-24 08:06:00,51.2,45.9,29.65,South,171,4.0,4.0,82,0.00,,BKN110,0.10,95.00,VWS V14.00,2014-04-24 13:06:00,
2014-04-24 08:08:00,51.2,45.9,29.66,South,171,0.0,0.0,82,0.00,,BKN110,0.10,100.00,VWS V14.00,2014-04-24 13:08:00,
2014-04-24 08:11:00,51.3,46.0,29.66,South,180,2.0,5.0,82,0.00,,BKN110,0.10,98.00,VWS V14.00,2014-04-24 13:11:00,
2014-04-24 08:12:00,51.3,46.0,29.66,South,181,3.0,5.0,82,0.00,,BKN110,0.10,100.00,VWS V14.00,2014-04-24 13:12:00,
2014-04-24 08:13:00,51.4,45.8,29.66,SSW,200,2.0,5.0,81,0.00,,BKN110,0.10,100.00,VWS V14.00,2014-04-24 13:13:00,
2014-04-24 08:16:00,51.5,46.2,29.66,SSW,199,3.0,5.0,82,0.00,,BKN110,0.10,93.00,VWS V14.00,2014-04-24 13:16:00,
2014-04-24 08:17:00,51.5,46.2,29.66,SSW,198,2.0,5.0,82,0.00,,BKN110,0.10,90.00,VWS V14.00,2014-04-24 13:17:00,
2014-04-24 08:18:00,51.7,46.1,29.66,SSW,199,4.0,7.0,81,0.00,,BKN110,0.10,67.00,VWS V14.00,2014-04-24 13:18:00,
2014-04-24 08:19:00,51.7,46.1,29.66,SSW,208,5.0,7.0,81,0.00,,BKN110,0.10,67.00,VWS V14.00,2014-04-24 13:19:00,
2014-04-24 08:21:00,51.8,46.5,29.67,SW,217,5.0,7.0,82,0.00,,OVC095,0.10,54.00,VWS V14.00,2014-04-24 13:21:00,
2014-04-24 08:22:00,51.8,46.5,29.67,SW,217,3.0,7.0,82,0.00,,OVC095,0.10,54.00,VWS V14.00,2014-04-24 13:22:00,
2014-04-24 08:24:00,51.9,46.6,29.67,SW,218,3.0,4.0,82,0.00,,OVC095,0.10,54.00,VWS V14.00,2014-04-24 13:24:00,
2014-04-24 08:26:00,51.9,46.3,29.67,SW,217,5.0,6.0,81,0.00,,OVC095,0.10,51.00,VWS V14.00,2014-04-24 13:26:00,
2014-04-24 08:27:00,51.9,46.3,29.67,SSW,213,4.0,6.0,81,0.00,,OVC095,0.10,47.00,VWS V14.00,2014-04-24 13:27:00,
2014-04-24 08:28:00,51.9,46.3,29.67,SSW,198,4.0,6.0,81,0.00,,OVC095,0.10,46.00,VWS V14.00,2014-04-24 13:28:00,
2014-04-24 08:29:00,52.0,46.4,29.67,SW,219,8.0,8.0,81,0.00,,OVC095,0.10,42.00,VWS V14.00,2014-04-24 13:29:00,
2014-04-24 08:32:00,52.0,46.0,29.67,SSW,202,4.0,8.0,80,0.00,,OVC095,0.10,44.00,VWS V14.00,2014-04-24 13:32:00,
2014-04-24 08:33:00,52.0,46.0,29.67,SSW,209,5.0,5.0,80,0.00,,OVC095,0.10,40.00,VWS V14.00,2014-04-24 13:33:00,
2014-04-24 08:34:00,52.0,46.0,29.67,SW,216,2.0,6.0,80,0.00,,OVC095,0.10,37.00,VWS V14.00,2014-04-24 13:34:00,
2014-04-24 08:35:00,52.0,46.0,29.67,SW,217,3.0,6.0,80,0.00,,OVC095,0.10,39.00,VWS V14.00,2014-04-24 13:35:00,
2014-04-24 08:37:00,51.9,46.3,29.68,SW,216,3.0,6.0,81,0.00,,OVC095,0.10,32.00,VWS V14.00,2014-04-24 13:37:00,
2014-04-24 08:38:00,51.9,46.3,29.68,SSW,211,4.0,6.0,81,0.00,,OVC095,0.10,33.00,VWS V14.00,2014-04-24 13:38:00,
2014-04-24 08:39:00,51.9,45.9,29.67,SW,215,5.0,7.0,80,0.00,,OVC095,0.10,37.00,VWS V14.00,2014-04-24 13:39:00,
2014-04-24 08:40:00,51.8,46.2,29.67,SW,215,4.0,7.0,81,0.00,,OVC090,0.10,37.00,VWS V14.00,2014-04-24 13:40:00,
2014-04-24 08:41:00,51.8,46.2,29.67,SW,227,6.0,7.0,81,0.00,,OVC090,0.10,37.00,VWS V14.00,2014-04-24 13:41:00,
2014-04-24 08:42:00,51.8,46.2,29.67,SW,217,3.0,7.0,81,0.00,,OVC090,0.10,32.00,VWS V14.00,2014-04-24 13:42:00,
2014-04-24 08:43:00,51.8,46.2,29.67,SW,217,3.0,4.0,81,0.00,,OVC090,0.10,35.00,VWS V14.00,2014-04-24 13:43:00,
2014-04-24 08:44:00,51.8,46.2,29.67,SW,217,1.0,4.0,81,0.00,,OVC090,0.10,40.00,VWS V14.00,2014-04-24 13:44:00,
2014-04-24 08:45:00,51.7,46.1,29.67,SW,216,0.0,4.0,81,0.00,,OVC090,0.10,44.00,VWS V14.00,2014-04-24 13:45:00,
2014-04-24 08:46:00,51.7,46.1,29.67,SW,217,3.0,4.0,81,0.00,,OVC090,0.10,46.00,VWS V14.00,2014-04-24 13:46:00,
2014-04-24 08:47:00,51.7,46.4,29.67,SW,217,1.0,4.0,82,0.00,,OVC090,0.10,49.00,VWS V14.00,2014-04-24 13:47:00,
2014-04-24 08:48:00,51.7,46.4,29.67,SW,216,0.0,2.0,82,0.00,,OVC090,0.10,51.00,VWS V14.00,2014-04-24 13:48:00,
2014-04-24 08:49:00,51.7,46.4,29.67,SW,217,0.0,2.0,82,0.00,,OVC090,0.10,51.00,VWS V14.00,2014-04-24 13:49:00,
2014-04-24 08:50:00,51.7,46.4,29.67,SW,216,0.0,2.0,82,0.00,,OVC090,0.10,49.00,VWS V14.00,2014-04-24 13:50:00,
2014-04-24 08:51:00,51.7,46.4,29.67,SW,216,0.0,2.0,82,0.00,,OVC090,0.10,46.00,VWS V14.00,2014-04-24 13:51:00,
2014-04-24 08:52:00,51.7,46.4,29.67,SW,217,0.0,2.0,82,0.00,,OVC090,0.10,46.00,VWS V14.00,2014-04-24 13:52:00,
2014-04-24 08:53:00,51.7,46.4,29.67,SW,217,0.0,2.0,82,0.00,,OVC090,0.10,46.00,VWS V14.00,2014-04-24 13:53:00,
2014-04-24 08:54:00,51.7,46.4,29.67,SW,216,0.0,0.0,82,0.00,,OVC090,0.10,46.00,VWS V14.00,2014-04-24 13:54:00,
2014-04-24 08:56:00,51.7,46.4,29.67,SW,217,0.0,2.0,82,0.00,,OVC090,0.10,44.00,VWS V14.00,2014-04-24 13:56:00,
2014-04-24 08:57:00,51.7,46.4,29.67,SW,217,0.0,2.0,82,0.00,,OVC090,0.10,44.00,VWS V14.00,2014-04-24 13:57:00,
2014-04-24 08:58:00,51.7,46.4,29.67,SW,217,0.0,1.0,82,0.00,,OVC090,0.10,42.00,VWS V14.00,2014-04-24 13:58:00,
2014-04-24 09:00:00,51.6,46.3,29.67,SSW,206,3.0,3.0,82,0.00,,OVC090,0.10,42.00,VWS V14.00,2014-04-24 14:00:00,
2014-04-24 09:01:00,51.6,46.3,29.67,SSE,168,4.0,4.0,82,0.00,,OVC090,0.10,44.00,VWS V14.00,2014-04-24 14:01:00,
2014-04-24 09:02:00,51.6,46.6,29.66,SSE,168,2.0,5.0,83,0.00,,OVC090,0.10,44.00,VWS V14.00,2014-04-24 14:02:00,
2014-04-24 09:03:00,51.6,46.3,29.66,SSE,167,1.0,2.0,82,0.00,,OVC090,0.10,46.00,VWS V14.00,2014-04-24 14:03:00,
2014-04-24 09:04:00,51.6,46.6,29.66,South,177,1.0,4.0,83,0.00,,OVC090,0.10,49.00,VWS V14.00,2014-04-24 14:04:00,
2014-04-24 09:06:00,51.6,46.6,29.66,South,176,0.0,4.0,83,0.00,,OVC090,0.10,49.00,VWS V14.00,2014-04-24 14:06:00,
2014-04-24 09:08:00,51.6,46.6,29.66,SSW,194,0.0,0.0,83,0.00,,OVC090,0.10,51.00,VWS V14.00,2014-04-24 14:08:00,
2014-04-24 09:09:00,51.5,46.5,29.66,SSW,194,0.0,2.0,83,0.00,,OVC090,0.10,51.00,VWS V14.00,2014-04-24 14:09:00,
2014-04-24 09:11:00,51.6,46.6,29.66,SSW,194,0.0,3.0,83,0.00,,OVC090,0.10,44.00,VWS V14.00,2014-04-24 14:11:00,
2014-04-24 09:13:00,51.5,46.5,29.66,SSE,166,2.0,4.0,83,0.00,,OVC090,0.10,37.00,VWS V14.00,2014-04-24 14:13:00,
2014-04-24 09:14:00,51.5,46.8,29.66,SSE,165,2.0,4.0,84,0.00,,OVC090,0.10,30.00,VWS V14.00,2014-04-24 14:14:00,
2014-04-24 09:17:00,51.5,46.8,29.65,SE,144,4.0,6.0,84,0.00,,OVC090,0.10,25.00,VWS V14.00,2014-04-24 14:17:00,
2014-04-24 09:18:00,51.4,46.7,29.64,SE,144,4.0,5.0,84,0.01,,OVC090,0.11,21.00,VWS V14.00,2014-04-24 14:18:00,
2014-04-24 09:19:00,51.4,46.7,29.64,ESE,118,6.0,6.0,84,0.01,,OVC090,0.11,21.00,VWS V14.00,2014-04-24 14:19:00,
2014-04-24 09:20:00,51.4,46.7,29.64,SE,136,5.0,7.0,84,0.01,,OVC046,0.11,21.00,VWS V14.00,2014-04-24 14:20:00,
2014-04-24 09:22:00,51.3,47.0,29.62,SE,124,5.0,7.0,85,0.01,,OVC046,0.11,19.00,VWS V14.00,2014-04-24 14:22:00,
2014-04-24 09:24:00,51.2,46.8,29.61,SE,132,8.0,9.0,85,0.01,,OVC046,0.11,19.00,VWS V14.00,2014-04-24 14:24:00,
2014-04-24 09:25:00,51.0,46.7,29.60,ESE,113,5.0,9.0,85,0.01,,OVC046,0.11,19.00,VWS V14.00,2014-04-24 14:25:00,
2014-04-24 09:27:00,50.9,46.9,29.60,SE,128,6.0,9.0,86,0.02,,OVC046,0.12,21.00,VWS V14.00,2014-04-24 14:27:00,
2014-04-24 09:29:00,50.7,46.7,29.60,ESE,117,6.0,7.0,86,0.02,,OVC046,0.12,23.00,VWS V14.00,2014-04-24 14:29:00,
2014-04-24 09:30:00,50.7,46.7,29.60,SE,138,5.0,7.0,86,0.02,,OVC046,0.12,26.00,VWS V14.00,2014-04-24 14:30:00,
2014-04-24 09:31:00,50.6,46.6,29.61,SE,126,7.0,7.0,86,0.02,,OVC046,0.12,26.00,VWS V14.00,2014-04-24 14:31:00,
2014-04-24 09:32:00,50.6,46.9,29.61,SSE,168,2.0,7.0,87,0.02,,OVC046,0.12,28.00,VWS V14.00,2014-04-24 14:32:00,
2014-04-24 09:34:00,50.5,46.8,29.62,SE,132,0.0,1.0,87,0.02,,OVC046,0.12,32.00,VWS V14.00,2014-04-24 14:34:00,
2014-04-24 09:35:00,50.5,46.8,29.63,SE,132,0.0,1.0,87,0.02,,OVC046,0.12,33.00,VWS V14.00,2014-04-24 14:35:00,
2014-04-24 09:36:00,50.5,46.8,29.63,SE,133,1.0,1.0,87,0.02,,OVC046,0.12,35.00,VWS V14.00,2014-04-24 14:36:00,
2014-04-24 09:37:00,50.5,46.8,29.63,SE,132,0.0,2.0,87,0.03,,OVC046,0.13,35.00,VWS V14.00,2014-04-24 14:37:00,
2014-04-24 09:39:00,50.5,46.8,29.64,SE,132,0.0,1.0,87,0.03,,OVC046,0.13,16.00,VWS V14.00,2014-04-24 14:39:00,
2014-04-24 09:41:00,50.5,47.1,29.64,SE,132,0.0,1.0,88,0.03,,-RA,0.13,12.00,VWS V14.00,2014-04-24 14:41:00,
2014-04-24 09:42:00,50.5,47.1,29.65,SE,134,0.0,1.0,88,0.03,,-RA,0.13,11.00,VWS V14.00,2014-04-24 14:42:00,
2014-04-24 09:43:00,50.4,47.0,29.65,SE,132,0.0,1.0,88,0.03,,-RA,0.13,7.00,VWS V14.00,2014-04-24 14:43:00,
2014-04-24 09:44:00,50.4,47.0,29.65,South,171,0.0,2.0,88,0.03,,-RA,0.13,9.00,VWS V14.00,2014-04-24 14:44:00,
2014-04-24 09:46:00,50.4,47.0,29.65,South,171,0.0,2.0,88,0.04,,-RA,0.14,26.00,VWS V14.00,2014-04-24 14:46:00,
2014-04-24 09:47:00,50.4,47.0,29.64,South,171,2.0,2.0,88,0.04,,-RA,0.14,39.00,VWS V14.00,2014-04-24 14:47:00,
2014-04-24 09:48:00,50.4,47.3,29.64,South,171,2.0,2.0,89,0.04,,-RA,0.14,51.00,VWS V14.00,2014-04-24 14:48:00,
2014-04-24 09:49:00,50.3,47.2,29.64,South,171,0.0,2.0,89,0.04,,-RA,0.14,70.00,VWS V14.00,2014-04-24 14:49:00,
2014-04-24 09:51:00,50.4,47.3,29.65,South,171,0.0,2.0,89,0.04,,-RA,0.14,72.00,VWS V14.00,2014-04-24 14:51:00,
2014-04-24 09:52:00,50.4,47.6,29.65,South,171,0.0,2.0,90,0.04,,-RA,0.14,76.00,VWS V14.00,2014-04-24 14:52:00,
2014-04-24 09:53:00,50.4,47.6,29.65,South,171,0.0,0.0,90,0.04,,-RA,0.14,79.00,VWS V14.00,2014-04-24 14:53:00,
2014-04-24 09:54:00,50.3,47.5,29.65,South,171,0.0,0.0,90,0.04,,-RA,0.14,97.00,VWS V14.00,2014-04-24 14:54:00,
2014-04-24 09:55:00,50.4,47.6,29.65,South,171,0.0,0.0,90,0.04,,-RA,0.14,97.00,VWS V14.00,2014-04-24 14:55:00,
2014-04-24 09:57:00,50.4,47.6,29.65,South,171,0.0,0.0,90,0.04,,-RA,0.14,93.00,VWS V14.00,2014-04-24 14:57:00,
2014-04-24 09:58:00,50.4,47.6,29.65,South,171,0.0,0.0,90,0.04,,-RA,0.14,86.00,VWS V14.00,2014-04-24 14:58:00,
2014-04-24 09:59:00,50.4,47.6,29.65,South,171,1.0,1.0,90,0.04,,-RA,0.14,83.00,VWS V14.00,2014-04-24 14:59:00,
2014-04-24 10:00:00,50.4,47.6,29.65,South,171,0.0,2.0,90,0.04,,-RA,0.14,79.00,VWS V14.00,2014-04-24 15:00:00,
2014-04-24 10:02:00,50.5,48.0,29.65,South,171,0.0,2.0,91,0.04,,-RA,0.14,84.00,VWS V14.00,2014-04-24 15:02:00,
2014-04-24 10:03:00,50.5,47.7,29.65,South,171,0.0,2.0,90,0.04,,-RA,0.14,91.00,VWS V14.00,2014-04-24 15:03:00,
2014-04-24 10:04:00,50.5,48.0,29.65,South,171,0.0,0.0,91,0.04,,-RA,0.14,98.00,VWS V14.00,2014-04-24 15:04:00,
2014-04-24 10:05:00,50.5,48.0,29.65,South,171,0.0,0.0,91,0.04,,-RA,0.14,95.00,VWS V14.00,2014-04-24 15:05:00,
2014-04-24 10:07:00,50.6,48.1,29.65,South,171,0.0,0.0,91,0.04,,-RA,0.14,93.00,VWS V14.00,2014-04-24 15:07:00,
2014-04-24 10:08:00,50.6,48.1,29.65,South,171,1.0,1.0,91,0.04,,-RA,0.14,90.00,VWS V14.00,2014-04-24 15:08:00,
2014-04-24 10:09:00,50.6,48.1,29.66,South,171,0.0,4.0,91,0.04,,-RA,0.14,86.00,VWS V14.00,2014-04-24 15:09:00,
2014-04-24 10:10:00,50.6,48.1,29.66,South,171,1.0,4.0,91,0.04,,-RA,0.14,86.00,VWS V14.00,2014-04-24 15:10:00,
2014-04-24 10:12:00,50.7,48.2,29.66,South,171,1.0,5.0,91,0.04,,-RA,0.14,74.00,VWS V14.00,2014-04-24 15:12:00,
2014-04-24 10:13:00,50.7,48.2,29.66,South,171,2.0,2.0,91,0.04,,-RA,0.14,83.00,VWS V14.00,2014-04-24 15:13:00,
2014-04-24 10:14:00,50.8,48.3,29.66,South,171,1.0,4.0,91,0.04,,-RA,0.14,90.00,VWS V14.00,2014-04-24 15:14:00,
2014-04-24 10:15:00,50.8,48.3,29.66,South,171,4.0,4.0,91,0.04,,-RA,0.14,97.00,VWS V14.00,2014-04-24 15:15:00,
2014-04-24 10:17:00,50.8,48.3,29.66,South,171,1.0,5.0,91,0.04,,-RA,0.14,109.00,VWS V14.00,2014-04-24 15:17:00,
2014-04-24 10:18:00,50.8,48.3,29.66,South,171,0.0,0.0,91,0.03,,-RA,0.14,100.00,VWS V14.00,2014-04-24 15:18:00,
2014-04-24 10:19:00,50.8,48.3,29.66,South,171,0.0,1.0,91,0.03,,-RA,0.14,91.00,VWS V14.00,2014-04-24 15:19:00,
2014-04-24 10:20:00,50.8,48.3,29.66,South,171,0.0,1.0,91,0.03,,-RA,0.14,91.00,VWS V14.00,2014-04-24 15:20:00,
2014-04-24 10:23:00,50.9,48.4,29.66,South,179,2.0,8.0,91,0.03,,-RA,0.14,91.00,VWS V14.00,2014-04-24 15:23:00,
2014-04-24 10:24:00,51.0,48.5,29.66,South,179,0.0,2.0,91,0.03,,-RA,0.14,93.00,VWS V14.00,2014-04-24 15:24:00,
2014-04-24 10:25:00,51.0,48.5,29.66,South,179,2.0,2.0,91,0.03,,-RA,0.14,90.00,VWS V14.00,2014-04-24 15:25:00,
2014-04-24 10:28:00,51.1,48.6,29.66,South,179,4.0,4.0,91,0.02,,-RA,0.14,98.00,VWS V14.00,2014-04-24 15:28:00,
2014-04-24 10:29:00,51.2,49.0,29.66,South,181,2.0,4.0,92,0.02,,-RA,0.14,111.00,VWS V14.00,2014-04-24 15:29:00,
2014-04-24 10:30:00,51.2,48.7,29.66,South,180,1.0,4.0,91,0.02,,-RA,0.14,113.00,VWS V14.00,2014-04-24 15:30:00,
2014-04-24 10:33:00,51.3,48.8,29.66,South,188,2.0,3.0,91,0.02,,-RA,0.14,109.00,VWS V14.00,2014-04-24 15:33:00,
2014-04-24 10:34:00,51.3,48.8,29.66,South,187,3.0,3.0,91,0.02,,-RA,0.14,111.00,VWS V14.00,2014-04-24 15:34:00,
2014-04-24 10:35:00,51.4,49.2,29.66,South,188,1.0,3.0,92,0.02,,-RA,0.14,113.00,VWS V14.00,2014-04-24 15:35:00,
2014-04-24 10:36:00,51.4,49.2,29.66,South,187,2.0,3.0,92,0.02,,-RA,0.14,113.00,VWS V14.00,2014-04-24 15:36:00,
2014-04-24 10:38:00,51.5,49.3,29.66,South,187,2.0,2.0,92,0.01,,-RA,0.14,118.00,VWS V14.00,2014-04-24 15:38:00,
2014-04-24 10:39:00,51.5,49.3,29.66,South,187,0.0,3.0,92,0.01,,-RA,0.14,121.00,VWS V14.00,2014-04-24 15:39:00,
2014-04-24 10:40:00,51.5,49.3,29.66,South,188,0.0,3.0,92,0.01,,OVC035,0.14,125.00,VWS V14.00,2014-04-24 15:40:00,
2014-04-24 10:41:00,51.6,49.4,29.66,South,188,3.0,3.0,92,0.01,,OVC035,0.14,125.00,VWS V14.00,2014-04-24 15:41:00,
2014-04-24 10:43:00,51.7,49.5,29.66,South,186,0.0,2.0,92,0.01,,OVC035,0.14,127.00,VWS V14.00,2014-04-24 15:43:00,
2014-04-24 10:45:00,51.7,49.5,29.66,South,184,4.0,4.0,92,0.01,,OVC035,0.14,130.00,VWS V14.00,2014-04-24 15:45:00,
2014-04-24 10:46:00,51.8,49.5,29.66,South,184,0.0,5.0,92,0.01,,OVC035,0.14,135.00,VWS V14.00,2014-04-24 15:46:00,
2014-04-24 10:47:00,51.8,49.5,29.66,South,184,5.0,5.0,92,0.01,,OVC035,0.14,139.00,VWS V14.00,2014-04-24 15:47:00,
2014-04-24 10:49:00,51.9,49.7,29.66,South,176,4.0,5.0,92,0.00,,OVC035,0.14,139.00,VWS V14.00,2014-04-24 15:49:00,
2014-04-24 10:50:00,52.0,49.8,29.66,South,173,0.0,5.0,92,0.00,,OVC035,0.14,130.00,VWS V14.00,2014-04-24 15:50:00,
2014-04-24 10:51:00,52.0,50.0,29.65,South,173,0.0,5.0,93,0.00,,OVC035,0.14,125.00,VWS V14.00,2014-04-24 15:51:00,
2014-04-24 10:52:00,52.1,50.1,29.66,South,173,0.0,5.0,93,0.00,,OVC035,0.14,121.00,VWS V14.00,2014-04-24 15:52:00,
2014-04-24 10:54:00,52.2,50.2,29.66,South,186,3.0,5.0,93,0.00,,OVC035,0.14,118.00,VWS V14.00,2014-04-24 15:54:00,
2014-04-24 10:55:00,52.2,50.2,29.66,SSE,159,2.0,6.0,93,0.00,,OVC035,0.14,113.00,VWS V14.00,2014-04-24 15:55:00,
2014-04-24 10:56:00,52.3,50.3,29.66,SSE,162,2.0,6.0,93,0.00,,OVC035,0.14,109.00,VWS V14.00,2014-04-24 15:56:00,
2014-04-24 10:57:00,52.3,50.3,29.66,South,188,3.0,6.0,93,0.00,,OVC035,0.14,107.00,VWS V14.00,2014-04-24 15:57:00,
2014-04-24 10:59:00,52.4,50.4,29.66,SSW,193,3.0,5.0,93,0.00,,OVC035,0.14,105.00,VWS V14.00,2014-04-24 15:59:00,
2014-04-24 11:01:00,52.5,50.5,29.66,SSW,194,3.0,5.0,93,0.00,,OVC007,0.14,105.00,VWS V14.00,2014-04-24 16:01:00,
2014-04-24 11:02:00,52.6,50.6,29.66,SSW,196,4.0,5.0,93,0.00,,OVC007,0.14,118.00,VWS V14.00,2014-04-24 16:02:00,
2014-04-24 11:03:00,52.6,50.6,29.66,SSW,204,2.0,4.0,93,0.00,,OVC007,0.14,128.00,VWS V14.00,2014-04-24 16:03:00,
2014-04-24 11:05:00,52.7,50.7,29.66,SSW,201,3.0,4.0,93,0.00,,OVC007,0.14,179.00,VWS V14.00,2014-04-24 16:05:00,
2014-04-24 11:06:00,52.8,50.8,29.66,SSW,202,6.0,6.0,93,0.00,,OVC007,0.14,211.00,VWS V14.00,2014-04-24 16:06:00,
2014-04-24 11:07:00,52.8,50.8,29.66,SSW,203,2.0,6.0,93,0.00,,OVC007,0.14,257.00,VWS V14.00,2014-04-24 16:07:00,
2014-04-24 11:09:00,53.0,51.3,29.66,SSW,203,3.0,4.0,94,0.00,,OVC007,0.14,279.00,VWS V14.00,2014-04-24 16:09:00,
2014-04-24 11:10:00,53.1,51.4,29.66,SSW,202,4.0,4.0,94,0.00,,OVC007,0.14,287.00,VWS V14.00,2014-04-24 16:10:00,
2014-04-24 11:11:00,53.2,51.5,29.66,SW,219,4.0,5.0,94,0.00,,OVC007,0.14,287.00,VWS V14.00,2014-04-24 16:11:00,
2014-04-24 11:13:00,53.5,51.8,29.66,SSW,206,3.0,4.0,94,0.00,,OVC007,0.14,271.00,VWS V14.00,2014-04-24 16:13:00,
2014-04-24 11:14:00,53.5,51.8,29.66,SW,218,8.0,8.0,94,0.00,,OVC007,0.14,258.00,VWS V14.00,2014-04-24 16:14:00,
2014-04-24 11:16:00,53.7,52.0,29.66,SSW,213,2.0,8.0,94,0.00,,OVC007,0.14,214.00,VWS V14.00,2014-04-24 16:16:00,
2014-04-24 11:18:00,53.9,51.9,29.66,SW,219,3.0,5.0,93,0.00,,OVC007,0.14,183.00,VWS V14.00,2014-04-24 16:18:00,
2014-04-24 11:19:00,53.9,51.9,29.66,SW,219,4.0,8.0,93,0.00,,OVC007,0.14,172.00,VWS V14.00,2014-04-24 16:19:00,
2014-04-24 11:21:00,53.9,51.9,29.66,SW,224,4.0,8.0,93,0.00,,OVC055,0.14,176.00,VWS V14.00,2014-04-24 16:21:00,
2014-04-24 11:22:00,53.9,51.9,29.66,SW,223,3.0,8.0,93,0.00,,OVC055,0.14,174.00,VWS V14.00,2014-04-24 16:22:00,
2014-04-24 11:24:00,54.0,52.0,29.66,SW,227,5.0,5.0,93,0.00,,OVC055,0.14,171.00,VWS V14.00,2014-04-24 16:24:00,
2014-04-24 11:26:00,54.1,51.8,29.66,SW,227,3.0,7.0,92,0.00,,OVC055,0.14,181.00,VWS V14.00,2014-04-24 16:26:00,
2014-04-24 11:27:00,54.1,51.8,29.66,SW,227,4.0,7.0,92,0.00,,OVC055,0.14,181.00,VWS V14.00,2014-04-24 16:27:00,
2014-04-24 11:29:00,54.1,51.8,29.65,SW,217,1.0,7.0,92,0.00,,OVC055,0.14,178.00,VWS V14.00,2014-04-24 16:29:00,
2014-04-24 11:30:00,54.1,51.8,29.65,WSW,242,3.0,7.0,92,0.00,,OVC055,0.14,176.00,VWS V14.00,2014-04-24 16:30:00,
2014-04-24 11:32:00,54.2,51.9,29.65,WSW,242,3.0,7.0,92,0.00,,OVC055,0.14,167.00,VWS V14.00,2014-04-24 16:32:00,
2014-04-24 11:33:00,54.2,51.9,29.65,WSW,241,1.0,7.0,92,0.00,,OVC055,0.14,160.00,VWS V14.00,2014-04-24 16:33:00,
2014-04-24 11:34:00,54.3,52.0,29.65,WSW,242,0.0,0.0,92,0.00,,OVC055,0.14,148.00,VWS V14.00,2014-04-24 16:34:00,
2014-04-24 11:35:00,54.3,52.0,29.65,WSW,241,0.0,2.0,92,0.00,,OVC055,0.14,148.00,VWS V14.00,2014-04-24 16:35:00,
2014-04-24 11:37:00,54.4,52.1,29.65,WSW,241,3.0,4.0,92,0.00,,OVC055,0.14,155.00,VWS V14.00,2014-04-24 16:37:00,
2014-04-24 11:38:00,54.4,52.1,29.65,WSW,244,2.0,2.0,92,0.00,,OVC055,0.14,163.00,VWS V14.00,2014-04-24 16:38:00,
2014-04-24 11:40:00,54.5,51.9,29.65,West,263,2.0,6.0,91,0.00,,OVC065,0.14,183.00,VWS V14.00,2014-04-24 16:40:00,
2014-04-24 11:42:00,54.6,52.0,29.65,West,263,3.0,6.0,91,0.00,,OVC065,0.14,197.00,VWS V14.00,2014-04-24 16:42:00,
2014-04-24 11:43:00,54.6,52.0,29.66,WSW,237,3.0,3.0,91,0.00,,OVC065,0.14,195.00,VWS V14.00,2014-04-24 16:43:00,
2014-04-24 11:45:00,54.7,52.1,29.66,West,264,4.0,4.0,91,0.00,,OVC065,0.14,185.00,VWS V14.00,2014-04-24 16:45:00,
2014-04-24 11:47:00,54.8,51.9,29.66,SW,236,0.0,5.0,90,0.00,,OVC065,0.14,153.00,VWS V14.00,2014-04-24 16:47:00,
2014-04-24 11:48:00,54.9,52.0,29.66,SW,235,0.0,5.0,90,0.00,,OVC065,0.14,153.00,VWS V14.00,2014-04-24 16:48:00,
2014-04-24 11:50:00,54.9,52.0,29.66,West,281,0.0,4.0,90,0.00,,OVC065,0.14,151.00,VWS V14.00,2014-04-24 16:50:00,
2014-04-24 11:51:00,55.0,52.1,29.66,West,281,0.0,4.0,90,0.00,,OVC065,0.14,149.00,VWS V14.00,2014-04-24 16:51:00,
2014-04-24 11:52:00,55.0,52.1,29.66,SW,228,3.0,4.0,90,0.00,,OVC065,0.14,162.00,VWS V14.00,2014-04-24 16:52:00,
2014-04-24 11:53:00,55.0,52.1,29.66,SW,227,0.0,4.0,90,0.00,,OVC065,0.14,162.00,VWS V14.00,2014-04-24 16:53:00,
2014-04-24 11:56:00,55.1,51.9,29.67,WSW,254,0.0,6.0,89,0.00,,OVC065,0.14,190.00,VWS V14.00,2014-04-24 16:56:00,
2014-04-24 11:57:00,55.1,51.9,29.67,WSW,254,0.0,6.0,89,0.00,,OVC065,0.14,190.00,VWS V14.00,2014-04-24 16:57:00,
2014-04-24 11:58:00,55.1,51.9,29.67,WSW,254,0.0,6.0,89,0.00,,OVC065,0.14,183.00,VWS V14.00,2014-04-24 16:58:00,
2014-04-24 12:01:00,55.2,51.7,29.67,West,267,3.0,3.0,88,0.00,,OVC055,0.14,123.00,VWS V14.00,2014-04-24 17:01:00,
2014-04-24 12:02:00,55.3,51.8,29.67,West,267,3.0,3.0,88,0.00,,OVC055,0.14,114.00,VWS V14.00,2014-04-24 17:02:00,
2014-04-24 12:03:00,55.3,51.8,29.67,West,265,3.0,3.0,88,0.00,,OVC055,0.14,107.00,VWS V14.00,2014-04-24 17:03:00,
2014-04-24 12:04:00,55.3,51.5,29.67,SW,222,4.0,5.0,87,0.00,,OVC055,0.14,93.00,VWS V14.00,2014-04-24 17:04:00,
2014-04-24 12:07:00,55.2,51.1,29.67,SW,223,0.0,5.0,86,0.00,,OVC055,0.14,70.00,VWS V14.00,2014-04-24 17:07:00,
2014-04-24 12:08:00,55.2,51.4,29.67,SW,222,3.0,5.0,87,0.00,,OVC055,0.14,67.00,VWS V14.00,2014-04-24 17:08:00,
2014-04-24 12:09:00,55.2,51.4,29.67,SW,222,1.0,3.0,87,0.00,,OVC055,0.14,70.00,VWS V14.00,2014-04-24 17:09:00,
2014-04-24 12:12:00,55.2,51.4,29.67,SW,222,3.0,3.0,87,0.00,,OVC055,0.14,111.00,VWS V14.00,2014-04-24 17:12:00,
2014-04-24 12:13:00,55.2,51.4,29.67,SW,223,2.0,2.0,87,0.00,,OVC055,0.14,155.00,VWS V14.00,2014-04-24 17:13:00,
2014-04-24 12:14:00,55.2,51.4,29.67,WSW,246,0.0,3.0,87,0.00,,OVC055,0.14,178.00,VWS V14.00,2014-04-24 17:14:00,
2014-04-24 12:15:00,55.2,51.4,29.67,WNW,296,4.0,5.0,87,0.00,,OVC055,0.14,207.00,VWS V14.00,2014-04-24 17:15:00,
2014-04-24 12:17:00,55.3,51.2,29.67,West,281,0.0,6.0,86,0.00,,OVC055,0.14,279.00,VWS V14.00,2014-04-24 17:17:00,
2014-04-24 12:18:00,55.3,51.2,29.66,West,281,3.0,3.0,86,0.00,,OVC055,0.14,278.00,VWS V14.00,2014-04-24 17:18:00,
2014-04-24 12:19:00,55.4,51.3,29.66,West,281,3.0,4.0,86,0.00,,OVC055,0.14,281.00,VWS V14.00,2014-04-24 17:19:00,
2014-04-24 12:20:00,55.4,51.3,29.66,West,281,4.0,4.0,86,0.00,,,0.14,278.00,VWS V14.00,2014-04-24 17:20:00,
2014-04-24 12:22:00,55.6,51.2,29.66,WNW,302,2.0,7.0,85,0.00,,,0.14,200.00,VWS V14.00,2014-04-24 17:22:00,
2014-04-24 12:23:00,55.6,51.2,29.66,WNW,302,0.0,4.0,85,0.00,,,0.14,162.00,VWS V14.00,2014-04-24 17:23:00,
2014-04-24 12:24:00,55.6,51.2,29.66,WNW,302,0.0,4.0,85,0.00,,,0.14,162.00,VWS V14.00,2014-04-24 17:24:00,
2014-04-24 12:25:00,55.6,51.2,29.66,WNW,302,0.0,4.0,85,0.00,,,0.14,139.00,VWS V14.00,2014-04-24 17:25:00,
2014-04-24 12:27:00,55.7,51.3,29.66,WNW,302,0.0,4.0,85,0.00,,,0.14,114.00,VWS V14.00,2014-04-24 17:27:00,
2014-04-24 12:28:00,55.7,51.3,29.66,WNW,288,3.0,5.0,85,0.00,,,0.14,121.00,VWS V14.00,2014-04-24 17:28:00,
2014-04-24 12:29:00,55.7,51.0,29.66,West,267,8.0,8.0,84,0.00,,,0.14,130.00,VWS V14.00,2014-04-24 17:29:00,
2014-04-24 12:30:00,55.7,51.0,29.66,WNW,285,2.0,8.0,84,0.00,,,0.14,146.00,VWS V14.00,2014-04-24 17:30:00,
2014-04-24 12:33:00,55.6,50.8,29.67,NW,316,3.0,8.0,84,0.00,,,0.14,213.00,VWS V14.00,2014-04-24 17:33:00,
2014-04-24 12:34:00,55.6,51.2,29.67,WNW,300,5.0,6.0,85,0.00,,,0.14,232.00,VWS V14.00,2014-04-24 17:34:00,
2014-04-24 12:35:00,55.7,51.0,29.66,WNW,294,0.0,6.0,84,0.00,,,0.14,251.00,VWS V14.00,2014-04-24 17:35:00,
2014-04-24 12:38:00,55.7,50.6,29.66,WNW,302,4.0,4.0,83,0.00,,,0.14,267.00,VWS V14.00,2014-04-24 17:38:00,
2014-04-24 12:39:00,55.8,51.0,29.66,WNW,288,3.0,6.0,84,0.00,,,0.14,265.00,VWS V14.00,2014-04-24 17:39:00,
2014-04-24 12:40:00,55.8,51.0,29.66,WNW,294,4.0,6.0,84,0.00,,,0.14,253.00,VWS V14.00,2014-04-24 17:40:00,
2014-04-24 12:43:00,55.9,51.1,29.66,West,265,6.0,7.0,84,0.00,,,0.14,211.00,VWS V14.00,2014-04-24 17:43:00,
2014-04-24 12:44:00,55.9,51.1,29.66,West,279,4.0,8.0,84,0.00,,,0.14,197.00,VWS V14.00,2014-04-24 17:44:00,
2014-04-24 12:45:00,55.9,51.1,29.66,WNW,300,5.0,8.0,84,0.00,,,0.14,178.00,VWS V14.00,2014-04-24 17:45:00,
2014-04-24 12:49:00,55.9,50.8,29.66,NW,307,0.0,2.0,83,0.00,,,0.14,158.00,VWS V14.00,2014-04-24 17:49:00,
2014-04-24 12:50:00,55.8,50.7,29.66,West,268,5.0,7.0,83,0.00,,,0.14,172.00,VWS V14.00,2014-04-24 17:50:00,
2014-04-24 12:51:00,55.7,50.3,29.66,WNW,286,7.0,8.0,82,0.00,,,0.14,190.00,VWS V14.00,2014-04-24 17:51:00,
2014-04-24 12:54:00,55.5,50.1,29.66,West,262,3.0,6.0,82,0.00,,,0.14,213.00,VWS V14.00,2014-04-24 17:54:00,
2014-04-24 12:55:00,55.5,50.4,29.66,WNW,302,5.0,6.0,83,0.00,,,0.14,229.00,VWS V14.00,2014-04-24 17:55:00,
2014-04-24 12:56:00,55.5,50.4,29.66,West,277,3.0,7.0,83,0.00,,,0.14,244.00,VWS V14.00,2014-04-24 17:56:00,
2014-04-24 12:59:00,55.5,50.4,29.66,West,281,5.0,9.0,83,0.00,,,0.14,304.00,VWS V14.00,2014-04-24 17:59:00,
2014-04-24 13:00:00,55.5,50.1,29.66,NW,326,5.0,9.0,82,0.00,,,0.14,294.00,VWS V14.00,2014-04-24 18:00:00,
2014-04-24 13:01:00,55.5,50.1,29.66,NW,310,4.0,9.0,82,0.00,,,0.14,294.00,VWS V14.00,2014-04-24 18:01:00,
2014-04-24 13:04:00,55.5,49.8,29.66,WNW,290,6.0,9.0,81,0.00,,,0.14,255.00,VWS V14.00,2014-04-24 18:04:00,
2014-04-24 13:05:00,55.5,49.8,29.66,WNW,290,3.0,9.0,81,0.00,,,0.14,255.00,VWS V14.00,2014-04-24 18:05:00,
2014-04-24 13:06:00,55.5,50.1,29.66,NW,308,4.0,9.0,82,0.00,,,0.14,211.00,VWS V14.00,2014-04-24 18:06:00,
2014-04-24 13:10:00,55.5,50.1,29.66,WNW,290,5.0,10.0,82,0.00,,,0.14,241.00,VWS V14.00,2014-04-24 18:10:00,
2014-04-24 13:11:00,55.5,50.1,29.66,WNW,297,7.0,10.0,82,0.00,,,0.14,227.00,VWS V14.00,2014-04-24 18:11:00,
2014-04-24 13:12:00,55.5,50.1,29.66,NW,312,5.0,10.0,82,0.00,,,0.14,172.00,VWS V14.00,2014-04-24 18:12:00,
2014-04-24 13:15:00,55.3,49.6,29.67,West,279,5.0,9.0,81,0.00,,,0.14,134.00,VWS V14.00,2014-04-24 18:15:00,
2014-04-24 13:16:00,55.3,49.9,29.67,NW,305,5.0,9.0,82,0.00,,,0.14,134.00,VWS V14.00,2014-04-24 18:16:00,
2014-04-24 13:17:00,55.2,49.8,29.67,NW,304,5.0,9.0,82,0.00,,,0.14,141.00,VWS V14.00,2014-04-24 18:17:00,
2014-04-24 13:20:00,55.0,49.6,29.67,NW,305,3.0,8.0,82,0.00,,OVC055,0.14,158.00,VWS V14.00,2014-04-24 18:20:00,
2014-04-24 13:21:00,55.0,49.6,29.67,WNW,295,4.0,8.0,82,0.00,,OVC055,0.14,158.00,VWS V14.00,2014-04-24 18:21:00,
2014-04-24 13:22:00,55.0,49.9,29.66,WNW,294,8.0,8.0,83,0.00,,OVC055,0.14,132.00,VWS V14.00,2014-04-24 18:22:00,
2014-04-24 13:25:00,54.9,49.8,29.67,WNW,299,4.0,6.0,83,0.00,,OVC055,0.14,72.00,VWS V14.00,2014-04-24 18:25:00,
2014-04-24 13:26:00,54.9,49.8,29.67,WNW,299,3.0,6.0,83,0.00,,OVC055,0.14,72.00,VWS V14.00,2014-04-24 18:26:00,
2014-04-24 13:27:00,54.9,49.8,29.67,WNW,299,1.0,7.0,83,0.00,,OVC055,0.14,60.00,VWS V14.00,2014-04-24 18:27:00,
2014-04-24 13:30:00,54.8,49.7,29.66,NW,317,3.0,9.0,83,0.00,,OVC055,0.14,63.00,VWS V14.00,2014-04-24 18:30:00,
2014-04-24 13:31:00,54.8,49.7,29.66,WNW,300,4.0,9.0,83,0.00,,OVC055,0.14,63.00,VWS V14.00,2014-04-24 18:31:00,
2014-04-24 13:32:00,54.8,49.7,29.66,NW,313,7.0,9.0,83,0.00,,OVC055,0.14,74.00,VWS V14.00,2014-04-24 18:32:00,
2014-04-24 13:33:00,54.8,49.7,29.66,WNW,296,5.0,5.0,83,0.00,,OVC055,0.14,86.00,VWS V14.00,2014-04-24 18:33:00,
2014-04-24 13:35:00,54.8,49.7,29.66,NW,311,9.0,10.0,83,0.00,,OVC055,0.14,113.00,VWS V14.00,2014-04-24 18:35:00,
2014-04-24 13:36:00,54.8,49.7,29.66,NW,324,3.0,10.0,83,0.00,,OVC055,0.14,118.00,VWS V14.00,2014-04-24 18:36:00,
2014-04-24 13:38:00,54.8,49.7,29.65,WNW,302,7.0,10.0,83,0.00,,OVC055,0.14,114.00,VWS V14.00,2014-04-24 18:38:00,
2014-04-24 13:41:00,54.9,49.8,29.65,WNW,298,3.0,12.0,83,0.00,,OVC055,0.14,105.00,VWS V14.00,2014-04-24 18:41:00,
2014-04-24 13:43:00,54.9,49.8,29.65,NW,318,10.0,12.0,83,0.00,,OVC055,0.14,141.00,VWS V14.00,2014-04-24 18:43:00,
2014-04-24 13:46:00,55.0,49.9,29.65,WNW,289,3.0,14.0,83,0.00,,OVC055,0.14,146.00,VWS V14.00,2014-04-24 18:46:00,
2014-04-24 13:47:00,55.0,49.6,29.65,NW,304,8.0,14.0,82,0.00,,OVC055,0.14,146.00,VWS V14.00,2014-04-24 18:47:00,
2014-04-24 13:48:00,55.0,49.6,29.65,WNW,296,7.0,11.0,82,0.00,,OVC055,0.14,218.00,VWS V14.00,2014-04-24 18:48:00,
2014-04-24 13:49:00,55.1,49.7,29.65,WNW,298,13.0,13.0,82,0.00,,OVC055,0.14,260.00,VWS V14.00,2014-04-24 18:49:00,
2014-04-24 13:51:00,55.2,49.8,29.65,WNW,300,6.0,13.0,82,0.00,,OVC055,0.14,243.00,VWS V14.00,2014-04-24 18:51:00,
2014-04-24 13:52:00,55.3,49.9,29.65,NW,317,12.0,16.0,82,0.00,,OVC055,0.14,236.00,VWS V14.00,2014-04-24 18:52:00,
2014-04-24 13:53:00,55.3,49.9,29.65,North,350,7.0,7.0,82,0.00,,OVC055,0.14,223.00,VWS V14.00,2014-04-24 18:53:00,
2014-04-24 13:54:00,55.4,50.0,29.65,NW,325,14.0,14.0,82,0.00,,OVC055,0.14,229.00,VWS V14.00,2014-04-24 18:54:00,
2014-04-24 13:56:00,55.6,50.2,29.65,WNW,294,8.0,14.0,82,0.00,,OVC055,0.14,193.00,VWS V14.00,2014-04-24 18:56:00,
2014-04-24 13:57:00,55.7,50.3,29.65,NNW,334,11.0,14.0,82,0.00,,OVC055,0.14,178.00,VWS V14.00,2014-04-24 18:57:00,
2014-04-24 13:58:00,55.7,50.0,29.65,WNW,300,11.0,11.0,81,0.00,,OVC055,0.14,171.00,VWS V14.00,2014-04-24 18:58:00,
2014-04-24 13:59:00,55.7,50.0,29.65,NW,319,16.0,16.0,81,0.00,,OVC055,0.14,158.00,VWS V14.00,2014-04-24 18:59:00,
2014-04-24 14:01:00,55.6,49.5,29.65,NW,323,8.0,17.0,80,0.00,,-RA,0.14,153.00,VWS V14.00,2014-04-24 19:01:00,
2014-04-24 14:02:00,55.6,49.5,29.65,WNW,292,6.0,17.0,80,0.00,,-RA,0.14,156.00,VWS V14.00,2014-04-24 19:02:00,
2014-04-24 14:03:00,55.6,49.5,29.65,WNW,298,9.0,17.0,80,0.00,,-RA,0.14,156.00,VWS V14.00,2014-04-24 19:03:00,
2014-04-24 14:04:00,55.5,49.4,29.65,WNW,302,13.0,16.0,80,0.00,,-RA,0.14,151.00,VWS V14.00,2014-04-24 19:04:00,
2014-04-24 14:07:00,55.4,49.3,29.66,WNW,295,10.0,16.0,80,0.00,,-RA,0.14,130.00,VWS V14.00,2014-04-24 19:07:00,
2014-04-24 14:08:00,55.4,49.3,29.66,WNW,294,9.0,9.0,80,0.00,,-RA,0.14,105.00,VWS V14.00,2014-04-24 19:08:00,
2014-04-24 14:09:00,55.3,49.2,29.66,WNW,299,13.0,18.0,80,0.00,,-RA,0.14,105.00,VWS V14.00,2014-04-24 19:09:00,
2014-04-24 14:10:00,55.3,48.9,29.66,NW,319,5.0,18.0,79,0.00,,-RA,0.14,105.00,VWS V14.00,2014-04-24 19:10:00,
2014-04-24 14:12:00,55.1,48.7,29.66,WNW,295,12.0,18.0,79,0.00,,-RA,0.14,100.00,VWS V14.00,2014-04-24 19:12:00,
2014-04-24 14:13:00,55.1,48.7,29.66,NW,313,9.0,12.0,79,0.00,,-RA,0.14,113.00,VWS V14.00,2014-04-24 19:13:00,
2014-04-24 14:14:00,55.0,48.6,29.66,WNW,300,10.0,12.0,79,0.00,,-RA,0.14,113.00,VWS V14.00,2014-04-24 19:14:00,
2014-04-24 14:15:00,55.0,48.6,29.67,NNW,333,4.0,13.0,79,0.00,,-RA,0.14,107.00,VWS V14.00,2014-04-24 19:15:00,
2014-04-24 14:17:00,54.9,48.9,29.67,NW,304,6.0,13.0,80,0.00,,-RA,0.14,91.00,VWS V14.00,2014-04-24 19:17:00,
2014-04-24 14:18:00,54.8,48.4,29.67,NW,319,7.0,12.0,79,0.00,,-RA,0.14,97.00,VWS V14.00,2014-04-24 19:18:00,
2014-04-24 14:19:00,54.9,48.5,29.67,WNW,294,9.0,12.0,79,0.00,,-RA,0.14,97.00,VWS V14.00,2014-04-24 19:19:00,
2014-04-24 14:20:00,54.8,48.4,29.67,NNW,340,7.0,12.0,79,0.00,,-RA,0.14,88.00,VWS V14.00,2014-04-24 19:20:00,
2014-04-24 14:22:00,54.7,48.3,29.67,NW,313,13.0,16.0,79,0.00,,-RA,0.14,63.00,VWS V14.00,2014-04-24 19:22:00,
2014-04-24 14:23:00,54.6,48.2,29.67,NW,321,10.0,13.0,79,0.00,,-RA,0.14,58.00,VWS V14.00,2014-04-24 19:23:00,
2014-04-24 14:24:00,54.6,48.2,29.67,NW,317,10.0,13.0,79,0.00,,-RA,0.14,53.00,VWS V14.00,2014-04-24 19:24:00,
2014-04-24 14:25:00,54.6,48.6,29.67,WNW,302,7.0,14.0,80,0.00,,-RA,0.14,47.00,VWS V14.00,2014-04-24 19:25:00,
2014-04-24 14:27:00,54.5,48.5,29.67,NW,304,8.0,14.0,80,0.00,,-RA,0.14,56.00,VWS V14.00,2014-04-24 19:27:00,
2014-04-24 14:29:00,54.3,48.3,29.67,NW,310,12.0,13.0,80,0.00,,-RA,0.14,63.00,VWS V14.00,2014-04-24 19:29:00,
2014-04-24 14:30:00,54.3,48.3,29.67,NW,320,7.0,16.0,80,0.00,,-RA,0.14,63.00,VWS V14.00,2014-04-24 19:30:00,
2014-04-24 14:32:00,54.2,48.2,29.67,WNW,290,9.0,16.0,80,0.00,,-RA,0.14,76.00,VWS V14.00,2014-04-24 19:32:00,
2014-04-24 14:34:00,54.1,48.1,29.67,NNW,329,10.0,11.0,80,0.00,,-RA,0.14,81.00,VWS V14.00,2014-04-24 19:34:00,
2014-04-24 14:35:00,54.1,48.4,29.67,NW,317,5.0,11.0,81,0.00,,-RA,0.14,76.00,VWS V14.00,2014-04-24 19:35:00,
2014-04-24 14:37:00,54.1,48.4,29.68,NW,304,11.0,12.0,81,0.00,,-RA,0.14,74.00,VWS V14.00,2014-04-24 19:37:00,
2014-04-24 14:38:00,54.1,48.4,29.68,NW,325,12.0,13.0,81,0.00,,-RA,0.14,69.00,VWS V14.00,2014-04-24 19:38:00,
2014-04-24 14:39:00,54.1,48.1,29.67,WNW,297,6.0,14.0,80,0.00,,-RA,0.14,58.00,VWS V14.00,2014-04-24 19:39:00,
2014-04-24 14:41:00,54.0,48.0,29.67,NW,324,7.0,15.0,80,0.00,,BKN032,0.14,62.00,VWS V14.00,2014-04-24 19:41:00,
2014-04-24 14:42:00,54.0,48.0,29.68,WNW,298,8.0,15.0,80,0.00,,BKN032,0.14,62.00,VWS V14.00,2014-04-24 19:42:00,
2014-04-24 14:43:00,53.9,47.9,29.68,NW,315,6.0,15.0,80,0.00,,BKN032,0.14,63.00,VWS V14.00,2014-04-24 19:43:00,
2014-04-24 14:44:00,53.9,48.2,29.68,NW,323,11.0,13.0,81,0.00,,BKN032,0.14,70.00,VWS V14.00,2014-04-24 19:44:00,
2014-04-24 14:45:00,53.9,48.2,29.68,NW,324,17.0,20.0,81,0.00,,BKN032,0.14,70.00,VWS V14.00,2014-04-24 19:45:00,
2014-04-24 14:46:00,53.8,48.1,29.68,NNW,344,17.0,21.0,81,0.00,,BKN032,0.14,90.00,VWS V14.00,2014-04-24 19:46:00,
2014-04-24 14:47:00,53.7,48.3,29.68,NNW,332,5.0,21.0,82,0.00,,BKN032,0.14,90.00,VWS V14.00,2014-04-24 19:47:00,
2014-04-24 14:48:00,53.7,48.7,29.68,NW,325,8.0,13.0,83,0.00,,BKN032,0.14,83.00,VWS V14.00,2014-04-24 19:48:00,
2014-04-24 14:49:00,53.6,48.6,29.68,NNW,334,10.0,16.0,83,0.00,,BKN032,0.14,76.00,VWS V14.00,2014-04-24 19:49:00,
2014-04-24 14:50:00,53.5,48.5,29.68,NW,321,14.0,16.0,83,0.00,,BKN032,0.14,76.00,VWS V14.00,2014-04-24 19:50:00,
2014-04-24 14:51:00,53.4,48.4,29.68,NW,306,10.0,16.0,83,0.00,,BKN032,0.14,83.00,VWS V14.00,2014-04-24 19:51:00,
2014-04-24 14:52:00,53.4,48.4,29.68,NW,316,10.0,16.0,83,0.00,,BKN032,0.14,81.00,VWS V14.00,2014-04-24 19:52:00,
2014-04-24 14:53:00,53.3,48.6,29.68,WNW,296,3.0,4.0,84,0.00,,BKN032,0.14,79.00,VWS V14.00,2014-04-24 19:53:00,
2014-04-24 14:55:00,53.3,48.9,29.68,NW,312,12.0,14.0,85,0.00,,BKN032,0.14,74.00,VWS V14.00,2014-04-24 19:55:00,
2014-04-24 14:57:00,53.2,48.5,29.68,NNW,329,2.0,14.0,84,0.00,,BKN032,0.14,77.00,VWS V14.00,2014-04-24 19:57:00,
2014-04-24 14:58:00,53.2,48.5,29.68,NW,309,8.0,9.0,84,0.00,,BKN032,0.14,69.00,VWS V14.00,2014-04-24 19:58:00,
2014-04-24 15:00:00,53.2,48.8,29.67,NNW,331,9.0,12.0,85,0.00,,OVC032,0.14,81.00,VWS V14.00,2014-04-24 20:00:00,
2014-04-24 15:02:00,53.1,48.7,29.67,NW,317,7.0,13.0,85,0.00,,OVC032,0.14,77.00,VWS V14.00,2014-04-24 20:02:00,
2014-04-24 15:03:00,53.1,48.7,29.67,NW,316,5.0,8.0,85,0.00,,OVC032,0.14,72.00,VWS V14.00,2014-04-24 20:03:00,
2014-04-24 15:04:00,53.1,48.7,29.67,NW,313,6.0,11.0,85,0.00,,OVC032,0.14,70.00,VWS V14.00,2014-04-24 20:04:00,
2014-04-24 15:05:00,53.1,48.7,29.67,WNW,296,6.0,11.0,85,0.00,,OVC032,0.14,69.00,VWS V14.00,2014-04-24 20:05:00,
2014-04-24 15:07:00,53.1,48.7,29.67,WNW,302,9.0,13.0,85,0.00,,OVC032,0.14,65.00,VWS V14.00,2014-04-24 20:07:00,
2014-04-24 15:08:00,53.1,48.7,29.67,WNW,298,10.0,11.0,85,0.00,,OVC032,0.14,62.00,VWS V14.00,2014-04-24 20:08:00,
2014-04-24 15:09:00,53.0,48.6,29.68,WNW,298,12.0,14.0,85,0.00,,OVC032,0.14,62.00,VWS V14.00,2014-04-24 20:09:00,
2014-04-24 15:10:00,53.0,48.6,29.68,West,281,10.0,14.0,85,0.00,,OVC032,0.14,62.00,VWS V14.00,2014-04-24 20:10:00,
2014-04-24 15:12:00,53.0,48.6,29.68,NW,309,9.0,14.0,85,0.00,,OVC032,0.14,69.00,VWS V14.00,2014-04-24 20:12:00,
2014-04-24 15:13:00,53.0,48.6,29.68,NNW,330,10.0,13.0,85,0.00,,OVC032,0.14,74.00,VWS V14.00,2014-04-24 20:13:00,
2014-04-24 15:14:00,53.0,48.6,29.68,NW,304,10.0,13.0,85,0.00,,OVC032,0.14,79.00,VWS V14.00,2014-04-24 20:14:00,
2014-04-24 15:15:00,52.9,48.5,29.68,WNW,285,5.0,13.0,85,0.00,,OVC032,0.14,83.00,VWS V14.00,2014-04-24 20:15:00,
2014-04-24 15:17:00,52.9,48.5,29.68,WNW,294,7.0,16.0,85,0.00,,OVC032,0.14,77.00,VWS V14.00,2014-04-24 20:17:00,
2014-04-24 15:18:00,52.9,48.5,29.68,NW,309,8.0,16.0,85,0.00,,OVC032,0.14,77.00,VWS V14.00,2014-04-24 20:18:00,
2014-04-24 15:20:00,52.8,48.4,29.68,NW,317,8.0,16.0,85,0.00,,OVC032,0.14,81.00,VWS V14.00,2014-04-24 20:20:00,
2014-04-24 15:21:00,52.8,48.4,29.68,NW,304,10.0,16.0,85,0.00,,OVC020,0.14,86.00,VWS V14.00,2014-04-24 20:21:00,
2014-04-24 15:23:00,52.7,48.0,29.68,WNW,293,10.0,16.0,84,0.00,,OVC020,0.14,86.00,VWS V14.00,2014-04-24 20:23:00,
2014-04-24 15:24:00,52.7,48.3,29.68,NW,310,13.0,13.0,85,0.00,,OVC020,0.14,83.00,VWS V14.00,2014-04-24 20:24:00,
2014-04-24 15:25:00,52.7,48.3,29.68,NW,323,8.0,14.0,85,0.00,,OVC020,0.14,74.00,VWS V14.00,2014-04-24 20:25:00,
2014-04-24 15:26:00,52.6,48.2,29.68,WNW,302,10.0,14.0,85,0.00,,OVC020,0.14,51.00,VWS V14.00,2014-04-24 20:26:00,
2014-04-24 15:28:00,52.6,48.2,29.68,NW,313,6.0,6.0,85,0.00,,OVC020,0.14,58.00,VWS V14.00,2014-04-24 20:28:00,
2014-04-24 15:29:00,52.6,48.2,29.68,North,5,8.0,14.0,85,0.00,,OVC020,0.14,72.00,VWS V14.00,2014-04-24 20:29:00,
2014-04-24 15:30:00,52.5,48.1,29.69,NW,325,8.0,15.0,85,0.00,,OVC020,0.14,76.00,VWS V14.00,2014-04-24 20:30:00,
2014-04-24 15:31:00,52.4,47.7,29.69,NNW,327,12.0,15.0,84,0.00,,OVC020,0.14,76.00,VWS V14.00,2014-04-24 20:31:00,
2014-04-24 15:33:00,52.3,47.6,29.69,NW,307,14.0,16.0,84,0.00,,OVC020,0.14,83.00,VWS V14.00,2014-04-24 20:33:00,
2014-04-24 15:34:00,52.3,47.6,29.68,NNW,333,9.0,16.0,84,0.00,,OVC020,0.14,84.00,VWS V14.00,2014-04-24 20:34:00,
2014-04-24 15:35:00,52.2,47.8,29.69,NNW,331,8.0,18.0,85,0.00,,OVC020,0.14,88.00,VWS V14.00,2014-04-24 20:35:00,
2014-04-24 15:36:00,52.1,47.7,29.69,NW,325,9.0,18.0,85,0.00,,OVC020,0.14,86.00,VWS V14.00,2014-04-24 20:36:00,
2014-04-24 15:37:00,52.2,47.8,29.68,NW,322,13.0,18.0,85,0.00,,OVC020,0.14,86.00,VWS V14.00,2014-04-24 20:37:00,
2014-04-24 15:38:00,52.1,47.7,29.68,NW,315,15.0,15.0,85,0.00,,OVC020,0.14,84.00,VWS V14.00,2014-04-24 20:38:00,